GFSNE_500_spd_003.txt.gz
Wind_Speed
70 64 59 55 52 50 48 48 49 45 42 38 41 46 53 60 67 76 82 87 80 78 72 80 72 74 76 74 75 78 76 73 77 78 78 78 79 78
52 47 44 45 44 44 47 49 49 49 40 38 37 39 39 39 49 58 70 82 95 68 62 69 74 73 69 76 74 76 80 76 73 76 78 78 77 79
48 49 47 48 46 46 47 47 48 47 47 41 40 40 42 39 42 44 45 68 86 90 71 63 73 73 70 74 80 77 79 81 78 74 75 78 79 78
51 52 53 54 53 52 51 51 52 51 47 41 39 40 39 43 43 44 43 44 59 71 73 76 77 72 73 77 75 73 76 81 83 82 76 75 80 80
55 55 53 50 49 50 53 54 55 55 53 48 41 38 41 41 43 47 46 49 49 52 64 64 66 64 61 67 65 72 81 77 82 83 84 81 79 80
53 50 47 45 45 45 47 51 53 55 55 53 48 44 39 41 41 45 52 49 54 56 54 50 52 55 60 60 58 57 64 68 71 81 84 85 85 81
47 46 45 44 44 45 45 43 45 49 50 52 51 45 42 41 40 41 46 48 49 51 50 48 47 47 46 53 55 55 58 62 65 72 82 84 85 86
46 45 46 45 45 44 43 42 40 38 43 46 49 46 41 41 40 39 42 45 48 51 49 49 48 47 49 49 51 54 56 56 62 66 70 74 79 82
45 44 42 41 41 40 38 38 36 34 35 40 45 42 40 39 38 36 36 39 41 45 48 49 49 49 51 52 53 55 56 62 64 64 68 73 75 80
41 40 38 37 38 37 34 33 32 31 30 34 38 38 39 38 37 34 34 35 37 40 44 45 48 49 51 52 53 54 57 59 64 70 71 71 75 80
35 34 33 30 26 27 27 25 24 26 27 28 32 33 36 36 35 33 31 32 34 37 41 44 46 48 50 50 51 53 55 57 59 61 64 70 74 77
34 34 31 27 22 19 17 16 18 22 23 25 28 29 31 32 32 31 31 30 30 32 37 41 39 42 44 46 48 50 53 55 59 59 60 62 64 70
32 31 29 24 19 16 12 11 13 17 20 21 23 24 26 27 27 25 24 23 22 21 32 29 27 31 34 40 44 46 49 51 52 55 60 62 63 64
31 30 25 20 15 11 8 3 5 9 12 15 16 18 19 19 19 19 18 19 22 25 30 30 29 31 30 27 36 47 49 47 47 48 52 57 60 63
29 26 21 18 16 13 8 4 6 10 13 14 14 14 14 14 14 14 13 12 13 15 19 23 25 29 31 28 26 26 35 45 49 50 48 47 49 56
23 21 21 22 21 15 10 7 9 12 14 13 12 11 11 10 9 8 6 3 1 4 7 12 15 17 23 28 27 26 27 27 30 36 45 49 48 46
17 18 20 22 20 17 11 8 8 9 12 14 15 15 14 14 12 10 7 4 2 3 7 11 14 13 12 19 22 22 19 20 26 27 28 34 43 48
13 14 16 18 17 14 12 13 14 14 14 15 15 14 13 11 8 7 5 3 1 3 6 10 13 16 11 10 19 20 20 19 20 23 26 29 34 41
11 11 12 13 14 12 10 7 8 8 10 11 11 10 8 7 6 5 4 2 1 2 4 7 11 14 13 5 11 18 18 18 20 21 22 25 31 37
11 11 11 10 11 10 7 4 1 3 6 8 7 7 6 5 4 3 2 1 1 2 4 5 8 10 11 10 7 10 18 19 19 19 20 21 23 26
12 12 12 12 11 9 7 4 3 4 7 9 8 7 7 7 5 4 4 4 4 2 3 4 5 6 8 9 9 7 7 11 16 18 18 18 19 22
17 16 14 13 11 10 9 8 7 6 7 9 10 11 11 10 10 8 8 7 7 6 5 5 6 7 8 8 10 11 10 8 11 13 15 19 20 19
16 19 20 18 16 13 11 9 8 8 8 9 11 12 14 14 14 12 12 12 11 11 10 9 10 10 11 11 11 12 13 14 13 13 14 15 14 17

GFSNE_500_spd_006.txt.gz
Wind_Speed
73 68 66 63 58 55 51 50 50 52 49 44 45 47 51 54 58 64 74 81 80 79 74 70 73 67 60 67 66 67 72 76 79 80 81 82 82 84
61 59 54 49 47 47 49 50 49 49 49 41 42 43 45 44 43 45 51 60 69 75 76 78 69 66 67 65 66 70 75 76 80 82 82 84 86 85
46 46 47 49 51 52 53 53 53 53 55 48 45 43 46 46 47 45 40 42 49 66 73 89 77 69 62 60 68 64 70 76 81 84 83 86 87 88
46 48 50 52 55 56 57 56 56 56 58 55 53 49 46 49 51 47 45 42 39 45 55 74 95 94 61 66 69 75 75 78 78 80 79 84 88 88
52 54 57 57 54 52 50 51 51 53 55 58 58 57 52 48 49 49 46 48 40 35 41 49 70 79 73 67 66 70 72 76 84 83 85 82 84 87
58 58 54 51 50 50 48 46 46 47 48 49 52 58 58 55 50 49 50 47 52 44 47 47 48 61 81 89 73 71 73 76 81 83 90 85 80 82
53 49 48 47 47 48 48 47 46 44 44 45 44 51 56 57 55 51 49 50 50 53 52 53 50 46 47 58 69 67 80 79 80 81 83 82 80 76
44 43 41 40 41 42 42 42 40 40 43 45 42 43 50 54 55 51 48 48 50 48 53 56 54 54 46 45 56 55 53 72 81 84 88 86 77 78
41 41 41 42 42 39 40 37 36 36 36 38 39 38 42 49 51 47 46 47 46 46 47 53 55 52 55 56 55 48 51 56 69 74 82 85 85 89
41 42 43 42 40 38 36 30 31 33 33 33 33 34 37 41 43 43 44 41 40 40 43 43 51 50 51 51 51 50 55 56 60 63 67 75 78 77
40 42 42 39 35 33 31 23 21 26 30 31 30 29 31 36 38 39 39 37 35 36 39 38 41 43 47 49 51 53 55 56 58 61 67 67 69 74
37 39 39 36 30 25 25 20 16 18 19 21 23 23 26 30 33 35 34 34 32 32 36 35 38 40 42 44 48 50 52 55 60 63 65 69 72 70
32 33 33 31 27 24 21 19 12 12 14 14 13 18 22 26 28 30 30 30 29 31 35 33 36 40 41 44 48 50 53 55 56 60 65 67 69 70
28 29 29 30 29 24 21 18 10 4 3 7 12 16 18 21 23 25 26 27 26 28 30 25 27 29 31 33 36 41 45 49 53 55 58 61 64 68
24 25 27 29 29 26 21 17 12 7 6 9 12 14 15 16 18 20 21 22 22 23 24 25 26 29 32 35 40 44 45 42 45 51 53 56 57 61
20 21 24 26 25 22 18 14 11 9 10 12 13 14 15 16 17 17 18 20 20 17 13 7 6 8 13 21 32 42 43 37 35 37 47 51 52 55
17 16 18 22 23 19 17 14 10 7 7 9 10 11 12 12 13 14 14 12 10 8 3 2 4 5 8 8 14 25 29 30 28 25 22 29 41 47
16 13 14 16 19 16 14 13 12 11 10 11 11 12 12 11 11 12 11 10 7 5 5 4 3 6 10 10 5 8 14 16 15 16 20 24 27 31
16 14 12 13 13 14 11 9 7 7 7 8 9 9 9 8 8 7 6 6 6 5 5 3 3 4 8 11 6 5 12 16 20 21 21 21 26 29
16 16 14 12 12 11 9 6 4 3 2 1 2 4 5 5 6 6 7 7 6 5 5 4 3 3 5 8 8 5 5 15 18 19 19 22 23 25
18 17 17 15 14 13 11 8 5 5 6 7 7 6 6 6 6 7 8 8 8 7 6 5 4 4 5 5 6 7 8 7 5 8 15 19 20 21
18 18 18 20 18 15 14 12 10 8 8 9 11 12 13 13 12 11 11 10 10 10 9 8 7 7 7 8 8 8 7 8 10 10 7 8 13 19
20 19 19 20 22 22 19 16 14 12 11 11 12 13 15 15 16 16 16 15 14 14 13 12 12 11 11 11 11 12 11 11 11 12 13 12 9 10

GFSNE_500_spd_009.txt.gz
Wind_Speed
68 71 79 53 50 48 48 48 49 47 43 44 43 45 48 52 57 61 68 73 79 83 82 88 86 82 80 64 67 72 71 71 76 80 84 81 80 81
72 74 72 54 54 52 50 49 50 51 47 49 46 45 46 47 49 48 47 50 54 61 70 74 80 82 75 73 74 75 71 75 80 83 84 83 82 83
74 59 50 53 54 54 55 56 56 57 56 54 53 51 50 50 48 48 47 44 42 44 51 58 67 75 80 84 80 75 73 75 72 77 80 85 84 85
51 51 52 54 56 58 57 56 56 56 59 57 55 53 55 54 53 51 50 47 42 41 38 42 49 71 81 94 91 83 81 77 75 78 81 83 85 88
51 52 55 57 54 50 49 49 50 51 52 54 52 50 53 55 57 56 54 50 48 43 40 36 39 51 67 80 84 86 81 85 76 78 83 85 84 86
53 54 53 49 45 41 43 44 44 44 48 51 52 50 50 50 57 60 59 54 50 45 41 40 33 41 55 74 84 86 80 75 77 80 80 86 90 87
51 52 47 43 45 46 46 47 47 47 45 48 50 50 50 48 50 56 60 57 51 46 44 44 38 48 53 53 79 87 90 84 71 74 77 83 90 89
50 48 43 44 46 48 49 48 47 45 44 45 44 43 48 46 47 49 54 58 51 48 45 46 49 49 50 49 46 59 74 91 88 78 79 81 88 92
48 44 41 44 46 47 46 43 42 40 41 35 35 36 39 43 45 43 46 53 51 49 47 47 51 53 54 51 51 47 48 58 74 79 82 82 83 87
44 39 40 41 43 44 42 39 36 36 34 28 29 30 32 37 41 41 41 45 45 45 47 45 49 51 55 56 56 48 46 43 47 76 82 82 83 83
39 37 38 38 41 43 38 35 32 30 26 22 24 29 29 31 34 35 36 39 38 42 45 42 44 48 48 48 57 54 49 49 48 48 59 72 81 86
34 34 34 36 39 40 37 32 28 23 18 15 15 21 25 27 29 29 30 31 35 38 39 36 39 38 41 41 46 52 53 51 51 52 55 54 57 65
29 30 30 34 37 37 36 32 27 20 12 9 7 10 15 20 22 23 26 29 29 31 33 31 33 34 33 35 39 43 49 54 54 54 56 59 60 65
27 26 26 30 34 34 33 31 26 19 13 6 0 6 10 13 16 19 21 24 27 29 27 26 28 29 30 33 36 39 42 46 50 54 57 60 63 64
25 24 23 26 30 29 28 27 24 18 13 9 6 6 8 11 14 17 20 23 23 25 25 25 27 28 30 33 37 42 44 48 50 52 56 58 61 64
26 22 22 22 26 26 23 23 21 17 13 9 8 8 9 11 14 16 18 20 20 20 20 20 20 21 25 30 35 40 44 46 46 47 47 49 53 57
26 21 21 19 21 23 20 18 18 17 13 9 7 7 8 10 11 13 14 15 15 16 16 14 11 9 8 10 16 21 29 36 41 42 41 39 41 42
25 21 19 18 17 18 19 14 13 13 12 10 9 8 7 8 8 9 10 11 13 14 13 10 6 4 3 1 0 1 5 9 10 14 21 26 29 31
23 21 18 17 15 14 14 15 10 9 9 8 8 8 9 8 9 10 12 12 12 10 8 5 4 3 2 2 4 5 2 3 9 13 16 19 22 25
21 20 19 17 17 14 12 11 11 7 5 4 3 4 4 4 4 5 7 8 7 6 5 5 4 3 1 1 2 4 6 2 7 13 16 19 21 22
21 19 19 18 18 18 15 13 11 10 8 6 6 4 2 2 1 2 3 4 5 6 6 6 5 4 4 3 3 2 2 3 3 2 5 13 19 22
21 20 19 20 19 18 20 18 15 13 12 11 10 10 10 10 9 9 8 7 8 8 8 8 8 7 8 8 7 6 5 5 5 5 4 5 4 7
23 22 22 22 20 19 19 22 22 19 16 15 15 14 14 14 15 15 15 14 13 13 13 13 13 12 12 12 12 11 10 10 9 9 8 7 7 8

GFSNE_500_spd_015.txt.gz
Wind_Speed
72 61 54 44 36 38 44 49 51 47 42 41 43 45 46 50 47 44 41 40 46 54 64 76 89 93 94 90 90 90 86 83 83 83 84 82 81 78
52 42 32 37 40 45 44 48 54 52 47 45 44 44 46 46 48 48 45 41 40 42 50 58 67 78 90 91 90 90 87 84 84 82 84 85 85 82
35 35 37 41 43 46 48 54 50 52 54 40 44 40 39 41 42 44 48 48 45 41 41 44 50 62 73 84 90 89 88 85 84 84 84 85 88 86
36 37 40 44 47 47 52 48 48 46 46 42 42 42 43 42 41 39 43 47 50 47 44 43 40 46 62 74 80 87 88 85 84 83 84 83 87 88
38 39 43 47 48 51 48 47 41 43 46 46 43 44 44 45 45 43 40 41 46 51 49 45 44 40 44 61 75 80 83 85 84 84 83 83 84 86
39 42 45 50 48 51 47 41 40 43 45 49 48 48 44 42 42 43 44 42 41 46 50 49 46 42 41 45 56 71 80 82 82 83 83 83 83 84
39 42 47 48 49 48 45 38 40 44 48 49 48 45 40 37 37 39 41 42 39 42 47 50 48 45 41 42 44 51 64 78 80 80 82 82 83 83
38 41 44 46 49 45 39 38 40 46 47 47 44 40 37 32 31 34 37 40 41 41 46 49 49 47 43 41 41 40 45 58 73 81 82 80 81 84
39 42 42 45 46 41 34 36 42 45 47 46 40 36 31 30 31 33 36 38 39 41 45 45 48 49 46 42 42 37 32 41 44 59 78 80 80 82
40 40 43 44 43 35 32 35 41 42 44 42 36 31 26 24 25 26 27 30 35 39 42 43 44 49 50 45 41 36 31 40 39 37 47 61 71 83
38 40 41 42 39 31 29 33 38 39 42 38 31 25 21 18 17 13 14 17 24 31 36 37 39 44 51 48 45 41 37 39 45 47 50 47 57 78
38 39 40 40 34 28 27 31 35 36 38 35 28 22 18 13 9 10 10 12 18 25 30 32 36 39 49 53 48 47 46 45 40 45 45 44 41 59
36 37 37 35 30 25 25 29 33 34 35 31 26 20 14 10 4 10 11 13 17 24 26 28 32 36 46 51 49 50 54 50 43 43 46 44 39 41
36 34 35 31 27 22 22 26 30 31 32 28 24 19 14 7 2 3 9 11 17 22 23 24 25 33 43 48 46 45 51 55 53 47 43 49 49 46
34 33 33 27 25 21 20 23 26 27 28 26 22 18 14 10 6 3 6 10 14 18 21 24 28 33 39 43 43 42 39 47 50 53 51 49 51 52
33 32 31 25 21 18 18 19 22 23 24 23 21 17 13 9 7 5 5 7 10 13 17 21 25 28 32 35 35 34 34 34 37 42 45 52 53 54
32 30 28 24 21 21 16 17 18 19 19 19 19 16 12 9 6 5 6 8 11 13 16 18 20 23 24 26 28 30 31 33 35 36 38 41 44 45
30 28 25 22 20 21 20 16 15 16 15 16 16 15 12 7 5 4 6 9 11 12 14 16 17 19 21 23 26 28 29 31 33 36 39 41 43 44
29 27 23 21 20 19 19 17 15 15 15 12 12 12 11 10 4 3 5 7 9 11 12 13 14 16 17 18 19 20 22 25 28 31 35 38 41 43
29 27 24 21 20 20 19 17 15 14 14 13 10 9 8 6 6 5 6 8 9 11 11 12 12 12 10 10 10 10 13 12 13 14 14 12 12 12
27 27 26 24 22 20 19 18 16 16 15 14 12 10 8 5 2 2 5 7 9 11 12 13 13 13 12 11 10 10 11 11 10 11 10 10 11 11
25 27 27 27 26 23 20 19 18 17 15 16 17 14 12 10 9 7 7 8 9 10 12 13 14 13 12 11 10 10 11 11 10 9 9 8 7 9
21 23 25 27 28 27 25 22 20 19 19 19 17 20 19 15 14 15 14 13 12 13 13 14 14 14 14 13 13 12 11 11 11 11 11 11 10 11

GFSNE_500_spd_021.txt.gz
Wind_Speed
104 93 83 76 70 61 54 49 47 44 40 41 44 47 49 50 49 47 47 47 47 49 47 47 47 46 53 66 84 97 104 102 96 94 93 91 93 89
90 80 72 65 57 50 47 46 47 47 46 45 45 48 49 48 47 44 44 43 44 45 48 49 50 48 48 50 59 75 89 101 97 92 91 94 95 94
77 71 62 53 47 44 44 45 45 47 50 45 45 47 47 45 42 42 41 41 42 43 44 45 48 50 49 48 47 55 66 84 96 94 91 91 93 94
69 60 51 45 42 42 44 43 44 47 51 47 43 45 42 41 41 43 45 46 45 45 48 46 45 47 50 49 46 47 56 66 79 88 91 91 93 94
59 49 43 40 40 42 42 44 46 48 46 46 44 41 37 39 43 46 48 47 45 44 46 47 49 44 46 50 50 45 48 57 63 77 85 91 94 90
49 43 40 39 39 40 43 45 46 45 45 46 41 36 37 42 46 48 47 45 43 42 41 43 49 43 43 46 51 48 45 51 60 70 82 85 92 93
44 41 40 39 39 41 44 44 46 45 44 43 37 35 41 45 47 48 46 43 38 37 36 38 44 42 45 44 49 49 45 45 49 59 74 82 89 93
41 39 39 39 39 40 40 42 43 43 42 38 35 37 43 45 46 44 42 38 32 33 34 35 42 42 44 44 46 50 46 42 41 47 61 76 86 89
40 37 36 38 39 41 41 42 41 41 37 33 34 40 42 42 41 38 37 34 29 27 31 33 40 43 43 45 43 49 47 43 38 39 46 63 75 85
36 35 36 38 39 40 39 40 39 36 33 31 35 39 41 40 36 35 33 30 25 23 27 31 35 38 41 41 37 45 46 43 38 35 35 40 55 71
36 36 35 39 39 39 39 36 35 32 29 29 34 36 38 35 31 30 28 20 16 18 24 30 33 35 37 38 34 42 46 43 39 35 34 35 47 50
36 35 34 35 37 38 36 33 30 29 26 28 32 34 35 32 28 26 22 12 11 13 16 21 31 33 33 35 36 41 47 44 41 37 36 36 56 50
33 34 34 34 35 36 33 30 27 26 24 25 30 31 33 30 25 22 17 12 12 13 13 12 17 30 32 37 37 40 46 44 41 38 38 34 36 53
32 32 32 33 33 32 30 27 26 25 22 23 27 29 31 28 23 19 14 10 10 12 9 9 12 22 34 36 35 40 46 45 40 38 41 35 37 39
30 30 30 31 30 28 26 26 25 24 22 22 24 26 27 27 23 17 13 9 8 8 5 3 8 14 23 30 31 38 48 47 42 41 41 43 40 37
29 29 29 29 28 26 25 24 24 22 21 20 21 23 24 26 21 18 11 8 5 4 3 1 4 9 16 23 28 35 47 49 47 43 41 39 39 38
28 28 28 28 28 26 24 23 22 22 21 19 19 20 21 22 22 17 13 8 4 2 4 5 6 9 13 20 26 32 43 50 49 47 44 41 40 42
29 28 27 26 27 26 25 23 23 21 20 19 18 17 19 19 19 18 12 9 5 3 1 4 8 11 13 17 23 28 36 45 48 46 46 45 42 40
28 27 26 25 25 26 25 24 23 22 21 19 18 17 16 17 16 16 13 8 5 2 1 3 6 10 14 17 20 24 29 36 41 42 41 40 44 43
26 26 25 25 24 25 25 26 26 25 22 21 18 17 16 15 14 13 13 10 6 6 4 4 5 7 10 12 15 20 24 28 33 36 38 38 37 37
26 26 25 25 24 24 24 25 26 28 28 24 20 18 17 16 14 12 11 9 6 3 4 6 9 10 11 13 16 19 23 26 29 32 34 35 36 38
26 26 26 25 24 23 23 23 23 26 28 29 25 20 18 17 16 14 11 9 8 5 2 3 6 8 10 11 13 16 19 24 27 30 31 32 33 34
29 29 27 26 26 25 23 22 22 24 26 28 29 25 18 17 18 17 16 12 11 10 8 6 7 8 10 10 11 12 13 14 14 16 17 19 20 21

GFSNE_500_spd_024.txt.gz
Wind_Speed
89 97 101 104 92 78 70 63 56 49 39 35 37 41 44 47 51 51 49 47 47 47 48 49 49 50 51 51 51 62 74 87 99 107 103 100 99 95
91 96 101 93 76 66 58 53 47 45 41 39 37 41 45 49 51 48 47 45 43 43 44 46 47 48 50 50 50 50 53 63 80 94 99 98 97 96
94 95 88 73 63 56 50 45 44 44 43 41 41 44 48 48 48 47 45 42 39 39 41 44 44 44 45 49 51 51 49 50 59 74 87 91 95 94
92 90 77 64 55 49 45 43 42 43 46 46 44 44 45 45 46 45 41 38 40 42 43 44 45 45 46 45 46 51 51 46 48 56 69 80 88 90
89 79 65 57 48 44 43 43 42 44 45 47 44 42 44 45 42 39 39 40 42 43 43 42 42 43 44 45 45 47 52 49 46 48 56 67 77 88
80 67 57 50 44 41 41 40 42 44 45 45 43 42 43 40 36 37 40 43 44 42 40 40 42 42 43 45 44 45 46 51 46 44 50 65 72 80
70 57 49 46 41 38 39 40 43 45 45 45 42 42 38 33 34 40 43 44 42 39 38 41 41 40 44 40 44 45 44 48 46 41 44 58 74 80
57 48 43 42 38 37 38 38 40 42 43 42 40 37 32 32 38 42 44 41 36 38 39 34 32 33 36 43 42 44 43 44 46 41 42 48 57 84
49 44 40 40 38 38 39 41 41 43 42 39 34 32 29 33 37 40 40 37 34 35 37 27 30 31 39 42 35 37 39 39 43 41 38 61 52 63
45 41 39 39 37 37 38 39 40 40 38 35 33 29 31 36 38 38 35 32 32 31 28 21 27 30 34 34 29 32 37 36 40 40 35 40 60 58
41 39 36 36 37 37 38 38 38 37 35 33 30 28 30 34 37 34 31 28 26 23 20 16 20 25 28 26 26 32 38 34 38 38 33 31 40 59
39 36 33 34 36 36 37 37 34 32 30 31 28 27 29 32 35 32 28 25 21 19 18 15 13 15 21 22 24 30 36 32 38 35 30 28 30 41
35 32 32 34 34 34 35 35 32 29 28 28 26 25 27 30 33 30 25 21 18 17 16 14 13 9 15 21 24 28 32 31 39 37 34 29 29 39
30 30 32 34 33 33 34 34 32 29 28 26 26 24 25 27 30 28 24 20 15 15 13 12 11 8 11 23 26 28 29 31 39 39 36 32 32 51
27 30 33 32 32 32 32 31 30 29 28 27 25 23 22 24 26 26 22 18 14 11 9 8 7 4 7 18 21 24 26 32 41 40 40 36 34 41
28 30 31 31 30 29 30 30 28 27 26 26 23 22 20 21 22 24 20 17 13 10 6 5 4 2 4 17 21 23 26 33 41 40 40 41 43 36
27 28 30 30 28 28 27 28 27 27 25 24 23 21 19 18 19 21 20 15 12 9 6 3 1 3 6 11 18 21 27 35 43 39 39 40 43 38
27 28 28 27 26 26 26 26 27 27 25 24 22 20 19 17 16 17 18 15 12 10 8 4 3 5 8 11 16 19 23 33 44 41 39 40 40 42
28 26 26 27 26 26 25 25 26 27 27 27 25 21 18 17 14 14 14 15 11 8 8 6 2 3 8 14 16 18 19 27 38 44 42 40 41 38
25 25 25 25 25 25 25 25 25 26 26 28 29 26 20 17 15 12 12 11 11 8 6 5 3 2 5 9 15 20 21 24 32 40 45 44 41 40
26 27 27 26 26 26 26 25 24 24 25 26 29 29 25 18 15 12 11 10 8 8 6 4 4 4 4 9 12 17 21 23 26 32 38 42 41 40
30 29 29 28 26 26 26 25 24 23 23 23 25 28 28 23 16 13 11 10 8 6 5 4 3 4 6 8 10 12 16 20 23 25 27 31 34 35
30 29 28 28 28 26 26 25 24 23 22 21 22 24 26 26 20 15 12 11 11 9 6 5 3 4 5 7 8 10 13 18 22 24 27 29 31 33

GFSNE_500_spd_030.txt.gz
Wind_Speed
76 83 81 81 85 89 79 74 79 79 78 74 73 68 58 49 42 42 42 42 44 45 46 47 48 49 50 50 51 51 53 55 59 64 71 85 96 105
75 80 84 89 88 79 73 76 74 71 72 68 64 56 47 41 39 40 41 42 44 46 46 46 48 48 48 48 48 49 51 53 53 56 60 65 77 93
84 88 88 75 67 72 79 73 70 69 70 62 54 45 40 39 39 40 40 42 43 44 46 45 47 47 47 47 49 49 50 52 54 56 58 59 61 73
87 85 71 68 77 79 71 69 69 69 64 54 46 40 39 39 40 39 41 43 44 44 44 44 43 43 44 46 48 49 50 51 53 55 57 61 60 61
82 76 73 80 82 68 64 66 66 59 54 49 42 40 39 40 39 39 40 40 40 39 38 38 38 38 41 43 46 48 49 51 52 53 56 59 61 61
71 76 80 73 64 64 64 62 55 51 48 44 41 40 39 39 39 37 36 38 36 34 33 36 38 40 43 44 44 45 47 47 48 49 53 56 58 60
79 75 68 62 63 62 58 53 49 46 41 39 39 38 38 39 38 34 35 32 30 32 33 38 38 38 38 38 40 40 41 43 44 44 45 49 54 58
66 62 60 60 59 56 51 46 44 39 37 36 35 36 35 35 33 32 32 28 28 33 34 40 34 35 36 37 39 41 43 45 45 43 44 45 47 52
58 58 58 56 54 49 43 40 37 36 35 34 34 34 30 30 29 28 29 27 30 32 32 33 32 34 36 39 42 45 47 48 48 47 46 47 46 47
56 55 54 53 49 42 38 34 35 35 35 35 35 33 29 28 27 27 26 26 29 32 32 28 31 33 33 34 33 36 39 39 37 40 45 47 46 45
56 52 51 49 43 37 32 32 33 34 34 34 34 32 29 27 26 25 25 24 27 34 32 26 31 26 28 31 30 28 31 30 30 31 36 41 42 43
53 50 48 43 37 32 30 31 31 32 33 33 33 32 29 27 26 24 23 23 26 31 32 28 27 23 28 29 27 23 25 28 29 32 31 33 36 37
51 48 45 39 34 31 30 30 30 31 31 31 30 29 27 26 25 25 22 22 25 30 27 25 22 23 25 27 21 16 17 20 23 24 25 29 31 33
48 46 42 36 31 30 29 30 30 29 30 30 29 29 28 26 24 23 22 22 23 26 24 22 20 21 22 20 13 11 9 13 20 24 26 27 30 32
46 43 39 36 30 29 29 29 28 28 29 29 28 28 29 27 23 22 20 21 22 25 23 21 17 18 18 16 10 9 11 18 27 27 27 23 28 30
43 41 37 35 30 29 28 27 27 27 28 28 27 27 27 29 25 20 20 19 20 22 18 19 16 14 14 10 10 11 17 24 27 27 23 23 26 28
39 38 36 32 29 28 26 24 25 26 26 27 27 27 26 27 27 21 18 18 18 19 17 16 14 10 10 6 12 15 20 27 34 26 25 24 24 24
37 37 34 30 28 26 24 23 25 26 26 25 26 25 25 26 28 25 18 17 16 15 17 15 13 8 5 3 12 17 22 28 35 30 32 30 26 26
35 35 32 28 26 24 24 24 25 26 26 24 24 24 24 24 25 26 20 16 14 13 14 13 11 7 5 3 12 17 21 24 36 35 32 31 32 30
34 33 31 28 26 26 26 25 25 25 24 23 23 22 21 21 23 26 22 16 14 12 11 11 7 5 4 6 9 17 21 23 30 43 35 32 32 32
34 33 32 29 28 26 25 25 23 24 24 24 22 21 19 19 19 22 24 17 13 12 9 9 7 4 2 5 10 13 19 24 28 43 42 36 34 33
33 32 31 30 29 26 25 24 23 25 25 24 23 21 19 17 16 18 22 19 13 12 10 7 6 3 2 4 8 13 16 21 26 35 46 43 39 37
32 31 30 29 28 29 25 23 23 25 25 24 22 20 18 16 14 15 16 20 15 10 10 8 6 6 2 3 6 9 15 18 23 31 38 44 44 43

GFSNE_500_spd_033.txt.gz
Wind_Speed
74 76 78 83 86 86 86 80 75 70 68 76 82 78 75 77 76 75 72 65 55 51 49 47 47 48 47 47 46 46 46 47 50 54 58 65 76 89
79 83 86 84 86 79 76 74 73 80 83 78 75 73 74 72 66 63 59 53 48 48 48 48 47 49 50 50 48 48 47 48 49 51 54 56 60 73
87 87 86 85 80 74 72 81 85 78 74 71 70 70 65 61 59 55 51 47 45 46 46 45 47 48 50 51 50 49 48 47 47 48 50 54 55 59
84 88 85 78 73 77 87 79 74 72 70 68 63 59 56 55 53 49 44 43 44 43 44 44 45 44 44 44 45 46 46 46 47 47 48 51 55 56
93 83 76 78 88 82 71 69 69 67 64 61 56 53 51 49 46 43 41 40 41 42 41 40 40 38 38 38 40 41 43 44 46 48 49 50 53 57
86 84 88 81 71 65 65 65 61 60 57 53 50 48 45 44 43 41 39 39 38 39 38 37 35 33 35 37 40 42 42 42 44 46 49 51 54 56
87 80 70 63 62 62 62 59 58 55 50 46 43 42 42 41 42 41 40 36 35 37 34 34 34 35 38 39 40 40 39 38 39 40 43 48 52 55
73 67 61 61 64 62 59 56 55 50 44 40 40 39 39 39 40 39 37 35 33 36 32 33 34 36 38 38 37 35 36 37 38 39 40 41 44 48
64 60 60 63 63 60 56 54 50 44 40 39 37 37 36 37 35 34 34 34 33 33 30 31 35 37 36 34 33 34 37 38 40 42 42 41 42 43
62 59 62 64 62 56 52 50 45 40 38 38 37 37 37 37 35 32 31 30 31 32 29 26 33 35 32 31 32 33 34 37 40 43 46 47 46 45
59 60 63 65 60 53 50 46 40 37 36 36 36 36 37 35 32 29 29 28 27 31 29 27 32 29 30 31 31 31 34 36 35 33 35 41 47 49
60 62 65 63 56 49 46 42 37 35 35 35 34 35 36 34 33 29 26 25 24 25 27 28 33 29 26 31 28 31 35 32 31 29 29 30 36 44
61 64 66 61 52 46 44 40 36 34 35 33 32 33 33 33 33 31 27 24 23 24 24 27 27 26 27 25 28 29 27 19 18 20 27 29 28 31
62 66 64 56 49 44 41 38 34 33 33 32 32 31 31 32 32 33 30 25 21 21 24 28 26 25 24 23 25 20 15 7 9 10 13 17 19 21
66 66 61 51 46 43 38 35 33 32 32 30 29 29 30 31 30 31 33 27 23 21 22 25 24 24 21 20 20 7 5 5 3 8 13 17 18 19
68 65 54 45 43 40 36 34 32 31 30 28 28 29 30 30 29 29 31 29 24 21 18 23 22 21 19 17 14 4 3 2 10 19 22 23 19 17
67 58 46 41 41 37 35 32 31 29 29 28 28 29 29 28 28 28 30 28 22 21 20 19 19 17 16 14 6 6 7 11 18 19 20 21 22 21
58 48 40 39 38 35 32 30 30 28 28 28 28 28 28 27 26 26 28 27 22 19 17 19 19 14 12 9 3 7 10 21 20 21 25 20 20 17
50 42 38 37 36 33 30 29 29 29 29 27 26 26 26 26 24 23 25 27 23 17 15 15 16 13 10 4 4 10 11 24 22 22 25 23 26 19
43 38 36 35 34 32 28 28 29 29 28 26 25 25 25 24 23 21 21 25 24 16 13 13 12 11 9 3 6 12 14 21 24 25 25 26 27 26
39 35 35 34 33 32 29 28 29 28 26 24 24 23 23 22 22 20 19 21 24 17 12 10 10 9 7 4 8 13 17 18 24 31 28 29 28 25
37 34 32 33 32 31 28 29 29 27 26 23 23 23 22 21 21 18 16 17 22 20 11 10 9 8 7 6 7 13 17 21 21 25 35 31 32 28
36 34 31 30 31 31 29 28 29 27 26 23 23 23 21 19 19 17 15 14 17 20 13 9 9 7 5 5 6 9 16 19 23 25 30 39 34 31

GFSNE_500_spd_036.txt.gz
Wind_Speed
73 77 76 81 83 86 91 90 90 86 85 84 77 74 77 77 74 71 67 64 64 62 60 59 56 50 46 44 43 44 44 43 43 45 44 48 52 61
74 77 84 85 87 91 89 89 89 85 79 73 73 73 72 68 65 62 60 58 56 54 53 50 47 45 43 44 44 43 45 46 45 45 47 48 49 51
79 83 83 87 87 88 88 85 83 74 68 66 69 66 62 61 59 56 54 53 52 49 46 44 42 42 43 43 44 45 46 49 50 50 51 50 50 50
78 82 86 86 87 87 84 80 69 66 67 66 63 59 58 56 53 51 49 48 46 44 42 40 40 40 40 41 42 44 45 45 45 45 48 50 50 51
86 84 87 87 84 83 79 67 63 65 68 65 58 56 52 49 47 46 46 45 44 41 38 37 37 37 37 39 40 40 39 39 39 40 42 46 48 50
82 84 85 84 82 76 68 62 63 68 66 59 55 52 47 45 45 45 43 44 42 40 36 37 34 33 35 35 36 36 36 36 36 38 40 43 46 48
82 83 83 78 73 71 63 63 65 68 61 54 52 47 42 42 44 44 42 40 40 39 36 36 32 34 34 34 33 34 37 38 38 37 37 40 45 48
81 82 77 71 69 66 62 63 66 65 56 50 48 43 40 41 41 40 39 39 37 37 35 34 33 34 34 34 33 35 38 37 35 35 36 37 39 42
80 75 70 69 67 63 62 63 65 60 51 47 43 40 39 40 39 38 39 38 37 36 31 28 34 33 34 35 33 36 36 34 34 35 37 39 41 42
76 71 68 66 65 61 61 63 62 55 48 45 41 38 38 39 37 37 37 36 36 35 31 25 30 30 33 35 34 33 31 33 35 37 39 41 44 44
72 67 64 64 62 61 62 63 59 51 45 43 39 37 37 37 37 36 35 34 33 33 32 26 29 26 30 34 28 28 31 33 34 38 41 42 44 47
67 64 63 62 61 62 64 62 55 47 43 40 37 36 36 36 36 36 34 33 33 30 31 26 29 28 26 30 30 28 31 32 35 39 41 40 40 44
64 62 62 62 62 64 64 57 51 43 41 38 35 34 34 34 34 35 36 35 33 32 29 24 26 27 30 27 28 27 28 29 25 22 20 22 27 30
61 60 62 63 66 65 60 52 47 40 38 36 34 33 32 32 33 34 35 35 34 32 29 27 24 25 27 25 27 25 25 12 10 12 10 9 11 19
61 63 65 67 66 62 52 47 44 37 36 33 32 32 31 31 32 32 34 33 34 32 27 25 23 24 25 24 22 22 12 4 6 8 6 6 7 12
66 66 67 65 59 54 46 42 41 36 34 31 30 30 30 31 31 31 31 30 30 35 30 20 21 22 22 22 18 14 2 8 11 10 9 13 14 16
72 65 61 56 51 46 42 39 38 34 32 30 28 28 29 30 30 29 29 28 28 30 30 21 15 19 19 17 14 6 4 14 13 11 15 12 10 14
64 56 54 50 46 42 39 38 35 33 30 28 26 27 28 28 27 27 27 26 26 29 28 18 16 16 15 14 8 1 5 15 17 12 15 16 14 20
56 52 46 46 42 37 36 35 32 32 29 24 26 27 27 26 26 25 25 24 24 27 24 16 14 15 13 10 4 4 7 17 18 14 13 15 15 15
47 43 41 41 38 35 35 33 30 30 27 25 25 26 25 24 24 23 22 20 21 25 23 14 11 13 13 9 4 7 9 21 19 16 17 19 18 16
42 40 37 37 37 33 32 31 29 27 27 25 25 24 23 22 23 21 20 18 18 21 22 13 9 11 11 8 5 9 13 20 19 22 18 19 22 20
38 37 35 33 33 31 30 28 27 26 27 27 26 23 22 21 22 20 17 16 15 17 20 14 9 8 9 6 4 9 14 18 24 21 24 21 25 25
39 37 35 33 31 30 28 26 26 25 28 28 26 24 22 20 21 19 16 14 14 14 17 16 9 6 8 7 4 4 12 17 22 22 25 27 26 28

GFSNE_500_spd_039.txt.gz
Wind_Speed
64 67 73 76 81 82 83 85 83 84 83 87 86 80 71 67 70 70 65 59 58 57 56 54 53 52 52 51 50 50 50 52 52 52 52 53 56 57
65 71 76 80 83 84 83 81 83 83 84 84 76 67 67 71 72 64 57 56 52 50 49 48 47 46 45 44 43 42 41 40 40 42 45 48 49 50
69 76 82 86 86 86 81 81 82 83 82 75 67 65 68 72 66 57 55 51 47 45 44 42 41 41 41 40 39 38 36 36 37 38 41 44 48 50
75 77 85 85 86 81 80 82 83 80 76 71 63 63 68 66 58 54 50 46 45 43 41 39 38 38 39 38 37 36 35 35 37 39 41 43 46 49
79 85 83 83 81 81 80 82 79 74 71 65 60 63 67 60 52 49 45 44 44 44 41 38 36 34 35 34 34 34 33 33 36 38 39 40 42 44
84 83 82 79 80 80 81 79 73 70 68 61 60 63 63 54 49 45 42 45 44 45 42 39 36 33 30 29 30 30 31 32 33 35 37 38 38 41
85 81 79 80 80 80 78 74 69 66 62 59 60 62 58 50 46 42 41 43 44 42 41 39 32 31 28 28 27 27 29 32 34 35 37 38 39 41
80 79 80 81 81 79 76 70 66 64 59 59 61 59 53 47 42 39 40 41 42 41 39 38 32 30 28 27 27 27 28 30 33 35 37 39 41 40
78 80 81 81 80 76 71 65 63 60 60 59 60 56 48 45 40 37 38 39 41 42 37 33 33 29 28 28 28 27 29 30 32 35 36 36 38 39
79 80 81 81 76 70 66 61 60 59 60 61 58 52 45 42 37 35 36 36 39 40 38 31 30 28 28 30 29 26 30 33 33 33 34 35 37 39
80 81 81 75 69 66 60 58 59 62 62 60 55 48 43 40 36 34 34 34 35 37 38 33 30 24 26 28 29 25 29 30 30 33 36 38 40 43
81 79 74 67 62 60 60 61 61 64 63 58 50 44 40 37 34 33 33 33 35 34 35 31 32 26 20 26 29 28 28 28 31 35 37 39 43 45
81 71 67 63 62 62 64 64 64 63 58 52 45 40 38 35 32 32 33 33 35 35 34 32 31 28 23 20 27 28 28 29 31 32 29 29 31 37
75 67 64 65 64 64 66 65 62 57 51 47 39 38 35 33 31 30 32 34 36 33 31 31 32 26 22 23 25 25 26 26 21 10 7 11 16 17
71 68 68 67 67 66 62 58 53 49 45 42 36 36 33 30 29 28 31 33 33 32 30 27 29 24 21 21 22 21 22 15 4 2 5 11 9 6
73 71 70 69 65 60 54 52 48 43 41 40 34 33 31 28 27 27 30 31 29 30 31 28 25 21 21 21 19 17 14 3 8 7 9 9 8 11
74 72 66 61 56 52 51 47 42 38 38 37 30 30 28 26 25 27 28 28 26 26 27 30 27 16 19 20 16 11 4 9 13 7 11 10 9 8
68 62 57 54 52 49 45 41 38 35 34 32 29 27 25 23 24 26 26 27 24 24 23 26 26 15 15 17 12 6 8 14 11 8 11 12 9 9
64 58 53 50 46 44 39 39 35 33 32 30 27 26 24 21 23 25 24 24 23 22 21 23 22 13 12 12 8 5 11 18 12 9 9 12 14 12
50 48 46 43 41 38 37 36 34 33 30 26 25 24 22 20 22 22 22 22 21 20 19 21 19 11 10 9 5 6 12 18 17 10 10 8 11 14
44 42 40 37 36 35 33 33 34 31 28 24 25 24 22 20 21 21 20 20 19 17 16 18 18 10 8 7 4 7 13 16 21 16 13 14 13 15
42 40 37 36 36 34 31 31 32 28 25 24 24 24 22 20 21 20 19 19 17 15 14 15 17 10 7 6 4 7 13 17 18 22 18 18 17 14
43 41 38 37 35 34 32 29 29 26 23 24 25 25 22 20 21 20 18 17 16 14 12 13 16 10 8 4 3 4 12 17 19 19 23 20 20 21

GFSNE_500_spd_042.txt.gz
Wind_Speed
64 66 64 65 69 69 72 77 83 85 84 83 84 87 86 87 88 80 67 65 70 67 58 55 53 51 50 50 50 51 52 54 58 63 68 73 83 92
67 65 65 71 70 73 76 83 86 84 82 83 84 85 84 83 80 70 62 65 67 58 53 50 47 46 45 45 45 45 46 46 49 53 57 61 65 70
67 68 72 74 76 79 86 89 87 83 83 82 83 82 82 75 70 63 62 65 64 54 49 46 43 41 41 41 41 40 40 40 41 43 44 48 51 55
65 72 74 75 81 85 89 89 84 82 83 83 80 77 73 70 62 60 63 65 60 52 47 44 41 39 39 38 38 37 38 36 36 36 37 37 41 45
67 73 78 84 85 87 87 83 82 83 83 82 77 70 67 63 59 60 62 62 55 50 45 42 39 39 39 36 35 34 34 34 34 34 33 34 36 39
72 77 81 84 85 84 81 81 83 83 81 77 71 65 61 59 58 60 61 58 51 47 45 41 39 38 35 33 31 29 29 31 32 32 32 32 33 36
77 80 83 82 81 80 80 82 83 81 76 70 64 59 58 58 60 61 59 53 48 44 43 40 41 38 34 30 28 26 26 27 29 31 31 32 33 35
78 81 81 80 80 81 81 81 80 75 69 64 59 58 59 60 61 60 56 48 44 42 40 37 39 39 36 31 27 25 24 25 27 29 30 31 33 35
77 79 80 81 81 82 82 81 75 68 62 60 59 60 61 63 62 57 50 44 41 39 38 35 39 37 36 32 27 24 23 25 25 26 29 31 33 35
75 78 80 81 83 83 81 77 68 62 59 61 62 63 64 63 59 52 45 41 38 37 37 35 38 36 34 33 28 24 21 24 26 27 28 30 32 35
78 80 82 83 83 82 77 69 63 62 63 63 63 64 63 57 52 45 40 38 35 35 35 36 37 35 32 32 28 24 21 24 25 27 28 30 32 35
80 81 83 82 80 76 70 67 66 66 67 67 62 61 55 51 45 40 37 36 34 32 35 34 35 35 27 31 27 26 22 24 25 26 28 31 35 40
85 84 83 81 75 71 70 69 68 68 67 64 62 55 50 46 40 35 34 34 32 31 33 34 33 33 30 22 26 25 23 24 25 26 28 32 35 36
87 84 82 79 75 73 72 70 68 63 60 56 54 49 45 40 36 33 32 31 30 30 31 32 30 31 30 24 19 22 23 22 22 23 18 15 15 18
85 84 81 78 74 70 67 65 60 55 51 49 49 44 39 37 34 33 30 29 28 30 29 29 29 27 31 23 17 20 20 19 17 5 3 4 6 15
87 83 78 74 72 69 64 58 56 53 49 47 43 39 35 33 30 31 27 27 27 29 29 29 27 24 27 20 15 18 16 12 4 4 6 4 5 8
84 76 72 69 65 59 52 51 49 46 46 42 38 34 29 27 28 27 25 25 26 27 27 28 27 23 23 17 15 14 11 4 11 4 2 2 2 4
77 71 66 62 53 46 43 44 41 40 40 38 34 30 25 25 27 25 23 24 25 25 25 25 24 23 19 14 13 11 7 10 11 7 5 4 3 2
72 66 62 52 45 42 40 39 37 35 36 36 31 28 24 24 25 23 22 23 23 24 23 22 21 21 16 11 11 8 5 14 14 9 7 7 5 6
68 61 53 45 41 39 38 36 35 33 34 33 30 27 25 24 23 22 21 21 22 22 21 20 18 19 14 10 10 8 8 15 18 12 10 8 9 10
61 56 49 44 42 40 37 35 33 32 32 31 29 25 24 24 23 22 21 20 20 21 19 17 16 17 12 9 9 8 12 17 23 16 13 11 10 12
57 52 47 44 42 38 37 35 34 32 31 31 28 24 24 24 24 23 21 19 19 19 17 16 14 15 12 9 8 8 13 18 23 24 17 15 13 12
54 49 45 42 39 37 35 34 34 33 31 31 27 23 24 25 24 24 22 20 19 18 16 15 13 12 12 9 8 8 12 18 22 25 26 21 19 16

GFSNE_500_spd_045.txt.gz
Wind_Speed
65 66 65 66 67 65 68 71 72 74 79 86 88 86 86 85 85 84 84 85 81 75 65 59 63 64 59 55 53 52 51 50 50 51 52 55 58 65
64 63 65 64 65 69 72 71 76 80 83 86 85 83 83 83 84 84 82 80 72 63 58 57 61 61 55 53 50 49 49 48 48 47 48 49 52 55
64 62 64 63 66 69 72 77 81 84 85 82 84 83 84 84 84 82 75 69 62 59 57 59 61 57 52 49 47 47 46 45 45 43 43 44 45 49
66 67 68 71 74 75 79 81 82 82 82 82 82 82 82 81 79 75 67 58 57 58 59 61 59 52 50 48 45 44 43 42 41 41 40 39 40 42
70 74 75 70 71 73 75 75 77 79 81 83 83 83 82 77 72 66 59 55 56 59 60 60 55 46 47 44 43 41 39 38 37 37 37 35 35 37
66 69 68 69 71 72 74 76 79 82 85 85 84 82 76 69 64 60 57 58 59 61 61 58 51 45 44 40 39 40 36 35 35 34 34 33 32 32
69 66 67 69 71 74 77 80 84 86 86 84 81 74 66 62 61 61 61 60 61 62 58 51 46 44 42 41 39 35 32 33 32 33 32 32 31 31
65 68 70 73 76 79 81 84 85 84 83 77 72 67 63 63 63 64 63 63 62 56 52 44 43 41 40 39 39 37 33 29 29 30 30 30 31 31
68 72 76 79 82 85 89 88 84 83 79 70 67 63 66 66 67 65 64 61 57 49 47 40 40 39 39 38 40 37 32 29 28 28 27 28 30 31
73 77 79 82 85 87 87 86 85 83 75 70 65 63 66 66 66 64 60 57 50 44 42 38 37 37 38 38 38 36 32 27 27 27 26 26 27 29
76 79 82 85 87 86 86 85 82 78 72 73 70 66 62 61 59 58 53 50 44 38 39 38 35 35 37 37 35 35 30 26 25 25 26 26 28 28
78 81 85 88 88 86 84 83 81 73 70 70 71 67 61 56 53 49 46 45 40 34 36 35 34 35 34 34 32 34 30 25 23 23 24 25 28 29
82 86 89 89 89 87 85 82 77 71 68 67 65 63 57 52 48 44 43 39 33 33 35 33 32 33 34 31 30 31 29 24 21 22 22 23 26 28
87 90 91 90 88 85 82 75 71 68 65 60 56 53 50 46 46 44 42 35 31 31 32 31 30 32 31 30 28 30 27 22 19 21 20 19 13 9
90 90 91 89 87 82 75 70 66 63 57 52 47 44 43 43 43 40 36 33 31 31 30 28 30 30 30 30 26 26 19 20 18 16 11 4 5 7
91 90 89 88 85 78 71 66 60 54 46 41 39 38 40 40 37 33 32 30 28 28 27 27 29 28 27 27 26 20 17 17 14 9 5 4 6 10
93 92 90 85 77 71 67 60 53 45 41 37 34 34 36 34 30 27 27 28 26 24 24 26 27 27 25 24 23 16 16 13 9 10 4 5 6 10
88 87 81 75 71 68 61 54 46 40 39 36 32 32 33 31 26 25 24 24 22 22 23 25 25 25 23 22 19 14 14 9 14 10 6 5 5 6
84 78 72 69 67 62 55 49 43 42 37 35 31 32 31 29 24 24 23 21 20 21 22 23 24 23 20 20 15 13 12 9 17 12 9 7 5 4
76 71 67 67 66 59 52 46 41 40 39 34 31 31 29 26 25 25 23 20 20 20 21 22 22 21 18 19 13 12 11 12 21 14 12 9 7 8
72 67 65 66 66 57 51 44 39 38 37 34 31 30 28 26 25 24 22 21 20 20 20 20 20 19 16 17 13 12 11 14 23 21 16 13 9 10
71 65 65 68 67 55 49 42 38 35 34 33 31 30 28 26 24 24 23 22 20 19 19 20 19 17 15 15 13 12 11 14 21 27 20 17 16 12
68 63 66 69 62 52 46 39 35 34 34 34 32 30 28 25 24 24 24 23 21 20 19 19 18 15 14 14 12 13 11 13 19 26 29 21 18 16

GFSNE_500_spd_048.txt.gz
Wind_Speed
55 58 67 70 71 70 69 68 69 74 69 71 74 75 74 78 81 82 82 82 81 82 81 78 72 64 61 57 59 60 60 56 52 49 47 48 47 47
57 62 67 68 66 68 67 70 78 77 72 71 70 74 76 80 83 85 85 84 82 80 74 69 61 56 56 57 60 60 57 51 49 48 47 47 45 44
57 61 61 60 73 73 71 72 75 73 73 72 74 77 81 84 86 87 87 84 78 70 64 61 56 56 56 58 60 57 51 47 46 47 46 44 43 42
59 61 60 62 69 72 69 72 76 74 76 77 79 81 85 86 86 86 82 78 71 61 58 58 57 58 58 59 55 50 46 45 43 45 43 41 40 39
62 63 64 67 70 68 73 73 75 78 82 82 83 87 88 87 86 83 77 71 64 59 57 59 58 58 57 52 47 43 44 43 43 42 40 40 38 36
62 64 66 68 69 70 73 76 79 82 83 86 89 89 89 85 83 79 75 67 60 59 60 59 58 56 53 47 42 39 39 39 40 41 38 36 35 34
62 64 66 67 68 71 75 77 80 83 86 89 90 89 86 81 75 71 69 64 61 61 62 58 55 53 46 42 38 38 39 37 37 37 38 35 32 32
61 62 65 67 70 73 76 80 81 84 87 87 86 85 80 76 71 69 68 65 63 59 60 55 51 45 41 38 36 37 39 38 37 35 34 33 32 32
60 63 65 69 72 76 79 81 83 86 87 87 86 83 79 74 72 69 67 64 59 56 56 50 44 40 37 35 35 37 39 38 35 34 32 30 29 30
64 67 70 72 76 79 82 84 87 89 87 87 84 80 75 70 66 66 64 58 54 52 50 47 40 37 34 32 34 35 38 37 33 32 29 29 27 27
66 70 73 76 80 84 88 90 92 90 87 84 79 74 72 69 64 62 58 54 51 46 43 44 38 34 30 30 32 34 36 34 32 30 27 27 26 26
71 74 77 81 85 88 91 94 95 93 91 84 73 68 66 64 59 53 50 50 47 43 38 42 37 33 27 29 31 34 34 33 30 27 25 27 26 24
77 80 83 86 88 89 91 94 93 92 86 75 67 63 60 57 51 44 42 43 40 40 39 38 34 31 30 28 30 32 33 30 28 24 24 24 24 24
83 87 88 87 88 91 93 92 90 86 77 68 64 57 52 46 42 38 38 38 39 39 37 35 32 29 27 27 28 29 30 29 24 20 22 22 21 16
88 90 89 87 88 90 88 88 83 76 69 64 60 50 44 39 36 37 36 37 37 34 32 30 28 26 25 26 26 27 25 27 20 19 20 17 8 5
88 88 87 87 89 86 85 80 74 68 65 62 54 45 38 34 32 31 33 33 32 31 27 25 25 23 23 26 26 24 24 20 19 17 15 10 7 4
88 87 88 88 85 83 79 73 68 64 63 60 51 42 35 30 29 29 28 27 28 26 22 22 21 20 22 24 23 22 21 17 16 15 12 11 5 5
87 87 86 82 81 78 73 67 62 61 63 57 49 40 35 31 29 28 26 25 24 22 20 19 17 19 21 23 21 19 18 15 14 13 13 11 7 4
87 82 78 79 77 75 70 65 58 59 64 54 45 40 34 32 31 27 26 22 21 20 18 17 17 19 19 20 19 19 15 13 12 18 15 13 11 6
79 76 78 78 77 73 68 61 58 60 59 46 39 40 32 30 30 27 24 21 21 20 19 17 16 17 18 18 17 19 14 12 13 20 17 16 13 8
75 77 78 78 76 71 65 60 60 61 50 40 36 36 33 30 28 26 23 21 20 20 18 17 15 17 18 16 15 17 14 12 13 21 20 17 15 11
76 78 79 77 74 69 63 59 61 54 43 36 33 35 33 30 29 26 23 20 19 20 18 17 14 16 17 15 14 17 14 12 13 18 26 20 18 14
79 80 77 75 71 65 60 59 57 46 39 32 31 34 36 31 28 24 22 20 21 21 20 18 15 15 15 14 13 16 14 13 12 16 23 27 21 19

GFSNE_500_spd_051.txt.gz
Wind_Speed
42 43 44 46 55 55 57 61 60 57 60 68 68 70 75 74 76 78 80 79 82 85 86 86 85 81 76 72 66 61 61 59 60 59 62 60 55 49
42 44 47 51 53 55 58 59 60 60 60 63 65 67 72 77 80 82 82 85 88 88 86 84 80 72 67 63 59 59 60 60 60 60 57 53 48 46
47 48 52 53 56 57 57 59 60 61 62 62 67 71 74 77 81 82 87 90 90 88 85 81 72 62 62 60 59 59 59 59 58 54 51 46 43 43
50 52 54 57 56 57 59 61 62 65 67 67 69 73 77 80 83 86 89 89 87 84 81 74 63 60 60 59 59 59 58 56 53 48 45 41 42 41
51 54 57 56 57 59 60 61 64 67 72 73 73 76 80 83 87 90 89 89 88 82 76 69 60 60 60 59 57 54 50 49 45 43 41 40 41 39
54 56 58 59 61 60 62 64 67 70 74 77 79 81 85 86 90 89 87 86 82 77 70 64 58 59 58 56 53 50 46 42 41 39 38 39 41 39
58 59 59 62 63 63 64 66 70 73 77 80 83 87 90 90 88 86 84 80 75 70 67 62 56 56 55 54 50 45 42 38 38 36 36 38 38 37
59 59 62 62 62 64 66 70 74 78 80 85 88 91 91 90 85 82 77 75 73 67 66 62 54 54 52 51 46 42 39 38 36 35 34 36 35 35
61 62 63 63 65 66 69 73 77 81 85 89 91 92 93 88 86 77 69 68 67 63 62 57 50 51 49 45 42 39 37 36 35 34 34 33 32 32
63 65 68 67 70 72 74 77 82 85 87 91 93 93 90 88 80 71 67 66 62 53 58 54 46 47 45 40 37 37 35 34 34 34 33 32 32 30
66 68 70 72 75 77 79 83 86 88 92 92 93 92 90 83 73 67 63 61 57 50 42 47 51 47 40 38 36 36 32 32 33 32 31 31 30 27
69 73 75 77 78 82 86 88 90 93 94 94 92 89 84 75 66 62 59 55 51 45 40 51 46 42 38 37 33 33 31 31 33 32 29 28 27 23
72 74 77 80 83 87 89 91 94 96 96 96 91 83 74 66 59 56 52 47 44 40 35 43 38 38 38 34 29 31 30 31 31 29 27 26 23 20
76 79 81 83 87 91 92 94 96 98 95 90 84 75 68 61 57 53 44 41 40 36 36 39 36 37 34 29 28 27 29 30 27 25 25 22 19 17
80 82 83 87 92 95 93 93 93 90 86 83 76 69 63 58 56 50 39 36 35 34 34 36 36 33 29 25 24 24 25 26 25 24 19 17 15 10
82 83 87 91 93 93 93 93 88 84 82 77 70 64 59 57 56 48 37 33 31 28 32 33 29 28 22 22 19 21 23 22 23 19 16 15 10 8
84 86 89 90 91 93 93 89 83 80 77 73 68 61 57 56 55 42 35 30 28 27 27 27 25 21 19 18 18 21 20 20 20 15 15 12 13 9
88 89 89 91 94 94 90 85 81 78 74 68 64 58 55 56 51 39 33 29 26 24 23 23 22 18 17 16 18 18 19 18 17 13 14 14 14 10
90 91 94 95 94 90 85 81 79 76 70 65 59 54 54 49 44 35 31 28 25 24 21 23 21 17 15 16 18 16 15 15 14 13 14 17 15 12
93 96 96 93 90 86 83 82 79 74 67 61 56 52 49 41 38 33 27 25 24 23 21 21 20 18 15 15 17 16 14 15 14 14 14 19 16 15
96 96 92 89 86 85 83 81 76 70 63 56 52 50 43 35 35 32 26 24 23 22 20 20 20 17 15 14 16 15 14 14 13 14 16 21 19 17
97 93 89 86 86 84 81 77 72 65 58 52 49 44 37 32 31 32 29 26 24 21 19 20 20 17 15 13 15 13 12 12 14 13 15 20 22 19
90 87 86 85 84 81 77 72 66 59 54 49 46 37 32 30 32 34 31 26 23 20 19 21 20 17 15 14 14 12 11 12 12 13 13 18 24 22

GFSNE_500_spd_054.txt.gz
Wind_Speed
33 35 37 40 44 46 48 51 54 54 54 56 58 59 60 61 63 66 68 71 75 78 81 85 88 90 91 90 84 83 77 71 66 64 63 62 61 60
34 38 41 45 49 49 52 55 55 54 54 55 55 58 61 64 68 71 73 76 79 83 87 90 92 91 87 83 76 74 68 64 63 62 61 60 59 58
37 41 45 48 49 52 56 57 55 57 58 56 58 61 64 67 70 73 76 80 84 88 92 93 93 89 83 76 70 67 64 63 62 61 60 57 55 54
41 45 48 50 48 53 56 56 56 59 61 60 62 65 67 70 72 77 81 86 89 92 93 94 91 86 78 69 66 62 61 61 60 58 57 53 50 48
46 50 52 53 53 55 57 57 59 62 64 66 67 68 71 75 79 82 86 90 92 94 92 90 81 77 71 65 62 58 58 58 56 54 51 47 45 43
51 54 55 55 57 58 58 60 63 66 69 71 73 74 77 80 85 87 91 94 95 93 90 83 75 70 70 63 59 61 57 55 53 50 47 44 42 41
54 57 58 60 60 61 62 63 66 69 72 74 77 78 81 87 89 91 95 96 94 91 83 74 71 66 63 56 54 65 57 53 52 47 43 41 40 40
60 61 61 62 62 63 65 66 69 73 75 78 82 85 88 92 92 95 99 98 97 87 74 68 66 64 57 52 61 59 55 52 50 45 40 38 37 37
62 62 63 63 64 65 65 68 73 77 79 81 84 88 91 93 97 100 101 96 88 79 70 65 61 59 44 49 56 59 49 51 46 43 38 35 35 35
63 63 64 66 68 70 72 75 76 78 82 85 88 90 92 94 97 100 98 92 82 71 65 63 57 50 44 50 57 50 51 50 42 41 38 34 33 35
64 63 65 68 72 74 76 78 78 81 85 87 90 91 93 96 95 97 93 85 72 65 59 60 51 46 39 45 49 50 54 45 42 39 34 32 32 33
64 64 68 72 74 76 78 79 80 84 85 88 91 92 96 97 93 92 87 76 68 60 56 54 47 42 41 45 50 51 43 42 38 33 30 30 31 30
68 72 74 76 77 78 80 81 85 86 88 91 93 96 98 94 91 87 77 68 62 56 53 50 43 40 41 40 43 39 40 36 32 29 28 31 30 27
69 72 75 77 78 79 82 87 87 90 92 94 96 98 96 89 85 77 69 62 56 54 51 44 38 38 37 37 37 38 34 30 27 26 28 30 26 21
75 77 78 80 81 83 86 87 91 92 94 96 98 96 90 85 78 71 63 57 52 51 42 39 37 36 36 34 34 30 27 25 26 25 27 25 20 16
81 85 85 84 83 84 85 89 91 94 97 97 94 90 86 80 74 66 58 53 50 44 37 34 37 34 34 30 27 23 23 22 25 25 23 21 15 14
88 90 86 84 85 87 88 89 92 96 97 92 89 87 82 76 69 61 56 50 45 36 34 33 33 32 28 23 21 21 20 21 22 23 20 16 13 14
88 83 84 84 86 88 90 91 95 94 91 88 86 84 78 72 65 56 52 48 41 32 30 32 30 28 21 20 20 18 19 19 22 19 18 14 13 17
84 84 85 85 88 91 94 96 93 90 89 86 83 77 73 68 60 51 48 44 35 28 28 28 28 26 18 20 22 16 18 19 20 18 16 14 14 19
84 86 87 90 92 96 96 93 90 88 85 82 77 73 70 62 52 47 45 38 29 26 25 25 25 24 20 21 21 17 16 19 18 15 14 14 15 20
85 88 91 94 97 98 95 91 88 85 80 75 72 70 66 54 48 43 38 34 27 23 20 20 23 24 19 21 20 17 16 16 16 15 15 14 15 21
89 93 96 98 99 96 91 88 83 79 75 73 70 65 60 48 44 39 33 30 29 26 22 21 23 21 20 21 19 16 16 15 16 15 14 14 16 22
95 97 98 98 95 91 87 82 78 75 74 70 66 59 50 43 39 34 30 27 23 26 24 23 21 19 21 21 18 15 15 15 14 15 14 14 15 21

GFSNE_500_spd_057.txt.gz
Wind_Speed
35 37 35 36 36 38 42 45 49 50 53 51 53 55 56 57 59 60 63 67 70 71 74 78 79 83 88 92 95 94 91 91 87 79 72 66 63 60
34 35 35 36 38 43 47 51 53 55 55 53 55 56 58 59 61 63 67 70 72 74 79 81 85 88 90 93 94 90 89 85 79 71 65 63 60 58
36 36 36 38 42 47 51 53 55 55 55 55 57 59 59 60 63 68 70 74 77 80 83 87 90 91 95 95 96 89 83 76 71 68 65 60 56 55
38 38 40 42 47 50 54 55 55 55 56 58 59 60 61 64 67 69 72 77 79 83 87 89 90 95 96 94 87 78 71 70 65 70 63 57 55 53
39 41 43 48 51 54 56 56 56 57 59 61 61 63 64 68 70 72 74 77 81 86 88 90 94 95 95 90 80 71 69 61 62 59 59 60 59 51
42 44 48 52 55 58 59 59 60 61 63 65 67 69 72 75 76 77 79 80 83 88 89 94 96 95 91 82 74 67 60 61 54 52 57 61 58 51
45 47 52 55 58 60 63 63 61 62 64 68 71 72 76 78 79 81 84 84 85 88 92 94 97 97 88 76 67 61 61 60 51 59 55 62 57 48
49 52 56 59 62 64 63 62 62 65 68 71 73 75 77 80 81 85 87 90 90 92 98 99 96 92 80 70 62 60 57 52 51 52 57 58 49 47
52 56 60 62 64 65 65 66 67 71 75 77 77 77 78 81 85 88 90 91 94 97 101 100 91 85 70 63 58 59 42 46 52 54 55 53 49 44
57 60 63 66 68 68 70 69 71 73 75 77 79 79 81 84 89 91 91 93 95 98 96 95 84 73 64 58 55 54 45 50 56 55 53 48 44 40
61 63 66 69 69 70 72 72 72 77 78 81 81 82 84 88 90 92 94 97 99 97 89 89 76 69 60 54 53 49 44 41 48 50 49 48 41 34
64 67 72 72 71 72 75 78 80 82 87 88 86 84 86 87 89 93 97 100 99 98 83 79 68 62 55 51 49 44 41 37 40 42 44 42 33 28
69 74 74 72 73 75 76 78 81 86 90 90 88 87 88 89 92 95 98 97 95 89 80 72 63 54 51 49 45 36 36 39 41 42 39 33 26 26
73 73 72 72 74 76 80 84 88 90 91 89 89 89 89 90 94 97 94 91 89 83 74 67 58 51 47 43 34 37 37 37 34 34 31 24 23 24
73 73 73 76 79 83 86 88 88 89 87 87 87 87 90 94 97 95 92 87 81 74 68 61 50 47 40 36 38 39 35 34 32 28 22 20 23 25
73 76 79 82 84 86 88 89 88 86 86 87 87 91 94 97 96 93 86 79 73 66 61 52 46 42 35 34 36 35 34 31 26 22 17 22 23 22
81 84 86 87 89 90 90 89 86 85 86 89 92 95 97 95 91 86 80 75 71 64 55 46 43 38 33 33 34 33 30 22 20 18 20 23 20 20
88 88 88 89 91 92 89 86 85 86 89 92 95 97 95 91 84 78 74 71 65 58 48 41 40 33 30 30 28 27 22 19 18 19 20 20 18 17
89 90 89 90 90 89 86 85 87 90 93 96 97 96 91 85 79 74 70 66 58 51 42 37 32 30 27 26 28 24 20 19 19 19 18 18 18 16
88 88 88 87 86 86 87 89 91 95 97 98 96 90 84 79 75 72 68 62 50 44 36 30 25 26 26 25 25 24 19 19 19 18 17 18 18 17
83 83 84 85 87 88 90 93 95 98 99 95 89 83 79 75 70 66 60 59 44 37 31 25 22 22 22 22 22 23 17 17 18 19 17 18 17 17
80 82 84 86 89 91 95 97 100 99 94 88 83 79 75 71 66 62 55 50 37 32 28 23 23 20 22 22 23 21 19 17 18 18 15 16 17 17
84 86 89 92 94 97 100 100 97 91 87 82 78 74 69 65 63 57 47 38 32 30 25 28 31 20 22 22 22 20 18 17 16 16 16 16 16 17

GFSNE_500_spd_060.txt.gz
Wind_Speed
30 32 31 35 39 40 41 39 40 40 44 48 52 54 55 56 56 57 58 60 63 65 67 70 70 74 76 76 78 82 86 91 91 94 95 91 83 74
32 33 36 37 39 41 41 41 42 44 48 50 53 56 58 56 57 58 59 62 65 67 71 72 73 78 80 80 82 84 87 91 94 91 88 79 74 68
36 37 39 40 42 41 41 41 44 48 50 53 56 57 57 57 58 60 63 66 68 71 72 73 75 78 82 82 84 86 88 92 94 87 79 73 70 66
40 42 41 42 43 42 42 44 46 51 54 57 59 58 57 59 62 64 66 69 71 73 75 77 79 82 82 86 87 89 92 92 89 80 71 61 69 61
41 43 44 45 44 43 44 49 52 56 58 61 63 60 61 62 65 67 69 71 73 75 77 78 80 83 86 88 89 91 92 93 85 74 66 63 57 60
43 45 46 45 44 46 49 53 55 58 62 65 63 62 63 65 68 68 70 74 76 77 79 81 81 84 88 90 93 95 96 90 77 68 60 58 50 56
45 47 46 46 48 50 53 56 57 61 65 66 63 64 66 68 70 73 75 80 82 81 80 83 83 86 89 93 95 98 96 82 69 61 55 52 57 63
47 48 48 49 51 54 56 58 60 64 68 68 67 68 71 73 75 76 80 84 83 82 84 86 89 91 95 98 101 102 90 73 65 57 54 54 50 49
49 49 50 52 54 56 59 62 64 69 72 70 70 73 73 75 78 82 84 84 86 87 91 90 92 95 99 100 99 92 76 67 59 52 52 44 44 46
53 52 54 56 57 60 63 66 69 72 72 73 74 74 76 80 83 86 87 88 87 90 93 93 96 97 100 98 91 79 68 60 51 49 44 41 49 50
55 56 58 60 61 63 66 69 75 74 73 74 76 78 82 84 87 89 89 90 88 90 90 96 97 100 100 89 79 71 62 53 47 44 36 32 37 42
58 60 61 63 65 67 70 74 74 69 71 76 81 84 85 87 89 89 89 88 89 89 91 98 99 98 94 79 70 65 54 46 44 33 28 29 32 33
62 63 65 67 68 70 74 75 71 74 79 82 84 86 87 88 86 86 87 88 89 92 93 99 97 88 81 75 66 56 47 42 33 28 30 31 30 30
66 67 69 71 73 77 78 78 80 82 84 85 85 87 88 88 87 86 86 88 92 95 95 94 88 80 75 69 60 50 42 34 28 31 31 30 27 24
70 72 74 77 81 81 80 83 85 86 87 87 87 87 89 88 87 86 88 91 93 95 95 86 80 75 69 61 52 45 37 31 30 30 29 26 22 19
77 78 83 83 82 83 86 88 89 89 89 88 87 88 88 87 87 88 90 93 94 93 85 80 75 71 63 53 46 39 34 29 28 27 25 20 19 17
77 80 79 80 84 86 86 86 88 90 88 87 88 87 87 88 89 91 94 96 96 90 77 74 71 65 57 47 39 33 31 28 26 23 19 17 18 15
78 80 83 85 88 89 90 90 89 86 86 86 86 88 89 90 91 93 97 97 89 78 73 68 62 57 52 40 34 30 28 25 22 19 17 17 19 16
76 79 82 85 87 89 88 86 85 85 85 87 89 90 91 93 95 98 98 88 79 75 68 62 56 49 42 34 31 28 28 25 21 19 16 17 19 17
86 87 86 86 86 84 83 84 84 86 88 90 92 94 96 97 100 96 86 80 75 69 64 58 51 39 34 29 26 24 25 22 19 20 17 17 18 16
84 83 84 82 82 83 84 86 88 90 92 94 96 98 100 99 92 85 81 76 71 63 55 51 39 33 29 26 24 23 21 18 19 20 17 16 17 17
82 82 82 83 85 86 88 90 92 94 96 98 99 99 95 89 84 81 76 70 65 58 50 42 31 29 24 24 20 20 19 16 19 18 17 15 16 17
82 84 85 87 88 91 93 95 97 98 99 98 94 89 87 85 81 75 69 61 57 51 43 32 26 26 21 20 21 22 20 18 18 17 15 15 15 16

GFSNE_500_spd_063.txt.gz
Wind_Speed
31 33 32 32 37 40 37 39 40 40 39 38 41 43 45 49 53 56 59 57 56 57 58 60 61 63 64 66 70 74 77 77 78 82 83 86 89 92
32 36 39 39 39 40 41 41 43 43 44 42 44 46 48 53 56 58 60 58 58 60 62 63 63 64 67 70 73 75 76 77 79 81 86 88 89 88
39 41 43 42 41 44 42 43 45 44 46 47 48 50 52 54 58 61 60 60 63 64 65 66 66 70 74 76 76 75 76 77 79 82 87 90 90 85
46 47 45 47 45 45 45 47 47 46 48 48 50 53 55 57 60 64 64 65 65 65 67 70 72 73 78 78 78 77 77 80 83 87 90 92 89 80
36 43 41 42 45 46 49 49 50 50 51 52 54 56 57 60 64 67 67 68 69 69 69 70 74 78 80 80 79 79 81 82 87 90 92 92 84 70
42 44 45 45 47 49 50 51 51 53 53 55 58 59 60 63 66 68 67 69 70 71 72 75 78 81 82 83 83 84 84 86 90 93 95 92 79 65
43 45 46 47 48 49 52 54 56 56 57 59 60 62 64 66 71 71 69 69 71 74 76 78 80 83 84 84 84 85 87 90 93 97 95 84 69 59
43 46 47 48 50 52 55 57 58 59 60 60 61 63 66 69 73 68 69 70 74 77 80 80 84 85 87 85 86 88 90 93 97 94 87 74 64 55
45 47 49 52 54 56 58 60 60 59 60 62 64 66 66 71 71 69 73 77 80 82 83 82 86 88 87 86 87 90 93 96 95 87 77 67 57 48
49 53 55 57 58 60 60 60 60 62 64 66 69 69 72 76 76 76 79 81 82 84 85 85 87 85 85 86 89 93 97 97 87 77 67 57 49 44
53 58 61 63 64 63 62 63 64 66 68 70 72 74 80 80 80 81 83 85 86 85 86 88 86 84 84 87 91 95 97 90 76 67 58 50 44 39
55 63 63 66 64 65 66 67 68 70 71 73 78 82 82 84 86 87 86 86 87 84 84 87 85 88 89 88 91 94 90 77 68 60 52 43 35 29
56 65 70 65 66 68 69 70 73 74 77 78 79 80 83 87 87 87 88 86 85 84 84 86 84 87 91 92 90 86 77 67 60 53 45 36 28 26
65 64 65 67 68 71 71 70 69 81 77 80 86 86 87 89 90 88 86 86 84 83 83 86 87 88 90 93 88 74 68 61 54 46 39 31 27 27
65 66 67 69 73 72 74 78 81 78 82 86 86 87 89 89 89 87 85 84 83 83 85 87 89 89 93 88 76 68 63 56 48 41 35 27 28 27
66 68 68 73 76 76 79 79 79 82 81 84 88 89 90 91 89 86 85 84 84 85 87 89 91 93 88 76 70 63 57 50 44 35 27 24 25 22
69 72 74 75 78 80 85 87 86 87 89 90 90 90 90 88 87 87 87 87 88 89 88 89 93 88 78 71 63 58 51 45 39 31 24 22 22 16
68 68 70 73 76 78 79 84 88 92 91 90 89 88 86 86 87 88 89 91 91 90 90 91 86 77 72 65 58 51 44 39 34 28 23 20 20 15
69 71 74 77 80 83 87 91 89 88 87 86 86 87 88 90 90 91 92 93 91 92 91 84 77 72 65 57 50 43 36 35 31 27 23 20 20 17
73 76 78 82 85 86 87 87 86 86 87 89 92 93 94 94 94 94 94 94 94 88 81 76 71 64 57 50 42 34 32 30 27 23 22 19 21 18
80 84 88 89 89 89 89 89 90 92 94 95 96 96 97 97 97 97 94 90 85 80 74 68 64 56 47 43 34 29 24 24 21 20 21 20 20 17
89 92 92 89 89 89 90 93 95 96 97 98 98 98 98 96 94 90 87 83 78 74 67 59 54 48 39 34 27 26 25 25 22 20 19 19 18 16
92 90 89 90 91 94 96 97 98 98 99 98 97 95 93 90 88 85 81 77 70 63 57 52 45 40 31 27 24 24 22 19 20 18 19 20 17 16

GFSNE_500_spd_066.txt.gz
Wind_Speed
34 36 36 36 39 39 40 41 46 45 43 42 43 43 48 48 49 51 52 53 55 56 58 60 62 62 63 64 65 67 69 69 72 74 76 75 74 73
38 41 41 39 41 40 44 46 45 46 46 48 46 48 50 50 52 53 54 56 58 59 61 63 66 64 65 66 68 69 70 72 75 77 78 77 75 75
43 45 45 41 39 44 47 56 45 49 45 47 49 52 54 55 54 56 57 59 61 62 63 66 67 67 67 68 69 70 74 77 79 80 80 79 78 79
49 50 49 51 49 46 49 47 49 46 50 51 52 55 58 58 57 58 60 61 63 64 64 69 70 70 69 69 71 76 78 80 82 83 82 81 80 81
51 53 49 50 42 37 50 51 47 46 53 55 56 57 59 60 60 61 63 64 64 66 68 71 71 69 70 73 78 80 81 83 84 85 83 81 83 84
37 43 46 42 42 47 48 52 52 52 55 57 58 60 61 62 63 63 66 67 67 69 72 74 73 72 76 79 83 84 84 84 84 83 82 83 85 87
38 38 43 44 48 50 52 54 56 56 58 60 61 64 64 66 66 67 68 69 70 72 73 77 76 78 81 85 86 85 85 84 84 82 82 86 89 91
41 43 45 45 45 49 54 55 55 57 60 62 65 66 67 68 69 69 70 72 74 76 79 81 82 82 86 86 86 86 85 84 82 82 85 88 91 93
46 46 46 48 50 52 55 57 59 62 64 65 68 69 70 69 70 71 72 75 79 79 79 79 84 85 86 86 86 85 84 83 83 84 87 90 92 91
46 48 49 50 54 56 57 59 63 68 67 67 70 70 70 70 73 76 79 79 78 80 83 85 87 87 88 87 86 83 83 84 85 86 89 91 89 80
49 50 53 56 57 58 54 64 72 60 63 71 71 74 74 76 76 74 79 82 81 84 86 87 89 90 88 85 83 83 82 85 88 88 91 90 78 69
52 55 57 58 59 57 61 58 63 70 81 77 77 78 79 79 81 81 87 86 85 88 90 91 92 91 84 82 83 83 86 88 88 90 89 79 68 60
56 58 59 59 60 63 61 72 68 78 81 83 76 78 83 85 86 84 85 86 89 91 95 93 89 86 87 84 82 84 87 87 89 88 78 67 59 52
57 58 60 61 67 67 68 74 77 75 73 77 82 83 86 82 83 87 90 93 95 95 92 89 87 86 87 86 85 84 85 87 87 76 67 58 51 44
58 57 55 56 64 71 73 73 74 78 82 81 80 81 85 87 88 90 92 94 95 92 88 87 87 87 87 87 87 86 87 86 75 65 58 52 44 39
65 54 60 69 73 71 74 79 82 82 79 80 82 84 86 88 91 94 94 92 90 88 88 88 87 88 88 88 89 87 84 73 65 57 50 43 38 35
64 68 74 75 72 74 79 78 75 76 78 80 82 85 88 90 90 90 90 90 88 88 89 88 89 90 91 91 89 82 70 64 58 50 43 37 33 31
68 73 74 75 76 77 76 78 79 83 84 86 89 91 91 90 90 90 90 91 93 93 93 94 94 94 93 87 80 70 65 57 49 42 36 31 29 28
70 72 73 73 72 73 76 79 83 88 92 94 97 97 94 92 93 94 97 98 98 98 97 96 94 90 85 77 69 63 54 47 41 35 30 29 26 25
70 74 79 81 78 79 81 84 87 92 96 98 98 96 95 97 99 101 101 101 99 96 93 89 85 82 77 70 60 52 47 39 35 25 25 24 26 25
76 81 81 81 84 87 88 92 96 98 98 97 99 101 102 103 103 103 101 98 94 90 86 82 78 74 66 57 48 42 38 34 30 25 24 21 23 22
78 81 82 85 88 92 97 99 98 97 99 102 104 105 105 105 102 99 95 91 87 83 78 73 67 61 54 46 41 37 32 28 20 23 24 21 21 20
84 89 90 91 92 92 94 96 99 102 104 105 107 105 100 96 94 91 87 84 80 77 73 67 61 55 48 41 34 29 26 26 30 29 27 23 21 20

GFSNE_500_spd_069.txt.gz
Wind_Speed
27 29 33 34 36 36 37 40 45 49 48 44 46 45 46 46 47 47 48 49 49 52 53 56 57 59 60 61 64 66 68 69 71 72 72 72 74 77
28 31 33 36 38 41 44 47 47 52 51 49 48 51 47 49 44 49 49 51 53 56 57 58 62 63 64 65 67 69 71 73 74 73 74 77 80 81
33 36 39 42 44 47 48 50 52 54 54 48 49 52 51 48 50 53 50 53 56 58 61 61 64 66 68 69 71 72 74 77 76 75 76 80 82 83
36 39 43 45 46 46 55 59 59 53 51 54 53 52 51 52 58 57 54 57 61 63 63 64 67 68 70 71 73 73 79 79 77 78 80 81 83 84
36 38 38 42 44 49 58 62 47 42 47 52 48 54 53 59 60 60 61 62 64 66 67 68 69 71 71 72 74 80 79 76 76 80 81 84 85 85
37 38 39 41 42 42 41 46 45 44 50 53 56 51 61 62 63 64 65 65 66 68 69 70 70 71 72 80 80 77 78 80 82 83 86 86 86 83
44 46 43 44 47 45 44 46 47 52 53 55 57 61 64 63 65 67 68 66 65 67 69 69 73 78 76 74 78 81 81 85 86 88 89 85 82 81
46 46 47 52 49 49 49 49 47 57 46 58 60 63 64 68 70 71 70 69 70 72 75 78 76 76 81 83 87 84 86 88 90 92 87 84 82 82
46 46 48 48 47 47 53 51 53 56 58 62 63 63 70 72 71 64 65 73 72 75 81 78 78 82 87 83 86 86 90 92 94 90 84 81 81 84
47 46 48 51 50 50 51 55 58 60 60 65 64 67 73 71 69 67 75 74 80 85 80 84 86 84 86 87 89 91 92 93 90 85 82 82 83 84
52 52 52 53 55 56 58 59 59 58 65 61 67 70 64 65 63 80 84 89 86 82 88 90 88 88 90 91 94 96 95 90 84 82 82 83 83 85
56 57 58 59 60 60 61 62 62 63 65 68 74 67 66 73 80 89 87 83 86 90 90 89 89 90 88 92 96 96 90 86 86 86 85 84 85 86
59 60 61 60 62 63 65 64 66 69 65 75 66 58 67 81 86 89 90 91 91 89 89 90 90 93 94 91 92 90 88 87 87 86 86 84 85 86
59 60 62 64 65 67 68 65 73 72 69 76 84 75 85 86 89 91 93 91 89 87 88 91 93 94 94 91 89 88 89 88 86 85 85 87 84 75
59 63 65 67 68 67 68 70 71 68 64 74 78 78 83 88 86 85 84 87 88 92 97 99 99 95 93 92 91 92 90 86 85 86 83 79 73 64
60 62 61 59 72 58 57 62 64 71 81 87 84 85 85 81 82 84 88 92 95 97 99 99 97 95 96 97 97 94 90 88 83 80 74 69 63 57
61 63 62 63 67 72 75 76 78 81 85 86 84 82 82 83 86 88 91 94 98 102 102 100 100 100 100 99 98 94 91 85 78 73 66 57 52 47
71 71 74 74 75 74 77 77 80 82 82 84 86 88 89 89 91 96 99 101 104 105 103 103 104 103 102 99 95 91 82 77 69 62 54 47 43 38
64 69 69 66 67 69 67 74 79 82 83 86 91 91 92 96 98 103 105 106 105 105 106 107 106 104 103 94 84 82 75 67 59 50 42 38 35 30
60 63 66 66 69 73 76 79 80 83 86 90 92 95 98 101 100 101 103 106 107 109 109 107 103 98 94 87 78 68 67 58 47 41 36 30 22 24
58 64 70 69 78 83 82 83 86 88 91 95 97 96 97 99 101 103 107 109 111 109 104 98 95 91 85 80 72 62 55 48 40 34 29 26 29 29
69 73 77 83 86 86 88 89 91 93 93 94 95 97 100 103 107 109 109 107 103 98 94 90 86 82 78 73 64 54 45 42 33 30 26 23 24 31
78 81 82 82 85 88 89 88 89 90 93 96 100 103 106 107 107 104 100 96 93 89 87 83 79 74 69 63 54 43 36 34 28 25 24 28 36 34

GFSNE_500_spd_072.txt.gz
Wind_Speed
26 26 27 29 31 32 32 33 37 36 38 38 44 46 47 50 49 52 50 48 46 47 47 50 51 51 51 52 55 58 61 64 66 68 69 69 69 73
23 27 28 29 32 33 32 36 39 43 45 43 45 51 52 49 53 48 53 49 51 50 50 53 54 54 52 53 56 59 61 65 67 69 70 70 75 71
25 27 29 31 34 36 39 38 42 46 49 48 47 49 53 54 53 53 52 49 58 53 55 58 55 55 55 57 59 60 62 66 68 68 71 69 71 71
29 31 32 34 38 39 43 44 49 49 50 51 54 44 45 44 50 49 45 53 52 60 62 57 55 57 58 60 60 62 64 72 71 67 68 75 77 78
35 36 36 40 41 42 45 45 46 47 47 46 40 45 45 48 51 53 48 43 49 60 61 61 63 61 61 62 63 64 69 65 67 72 75 79 79 81
34 37 38 38 38 39 47 47 47 50 49 49 49 50 48 46 57 57 53 53 59 61 54 69 68 67 62 63 69 76 71 71 75 78 80 81 82 86
38 40 41 43 44 47 46 49 47 49 54 54 52 54 54 53 52 57 64 62 63 64 61 81 69 60 65 71 79 72 73 78 82 82 84 84 85 86
41 42 44 46 46 49 51 54 56 50 50 49 58 53 59 61 60 56 58 65 62 60 73 71 61 65 73 77 77 79 81 83 84 83 85 86 88 90
44 44 45 46 46 49 51 55 56 56 51 59 57 57 57 60 61 66 68 68 63 73 57 58 61 73 75 78 81 84 81 83 84 87 88 89 90 90
48 48 48 49 49 51 53 54 56 57 56 58 60 62 63 63 65 65 67 65 69 63 70 63 72 77 86 89 90 89 85 84 85 89 93 91 90 87
50 53 54 55 55 54 56 58 59 61 61 61 61 63 68 67 69 65 70 69 77 82 74 72 80 88 93 93 91 86 85 87 91 93 94 91 89 90
48 51 54 55 57 62 63 63 64 65 65 67 68 68 72 71 64 70 73 71 65 67 76 81 93 93 92 90 86 88 91 94 96 99 96 93 92 92
60 58 58 59 61 60 62 65 68 68 70 71 71 72 77 67 81 75 81 82 82 85 85 88 90 93 91 89 88 91 96 97 100 99 96 95 94 93
73 65 62 64 71 68 64 65 66 67 68 71 70 72 74 77 83 83 77 78 82 86 88 86 87 88 89 90 91 94 98 100 99 97 97 97 94 90
58 68 71 74 76 78 68 66 68 67 68 68 71 69 69 71 72 77 81 86 86 87 89 91 92 94 95 95 96 99 101 100 100 100 97 95 89 83
68 70 75 75 75 77 69 67 67 69 69 70 72 69 80 81 78 80 82 84 86 88 93 96 96 96 99 102 104 100 101 101 100 98 95 89 82 73
74 74 75 79 82 82 80 72 74 77 73 72 73 75 74 73 78 81 84 87 89 92 94 97 100 103 104 102 103 103 103 102 98 97 90 81 71 62
74 76 76 78 73 71 74 74 62 64 66 64 68 72 74 78 82 86 90 92 94 96 98 102 105 102 101 102 106 107 106 102 95 86 78 71 59 52
69 69 62 57 55 57 59 62 65 68 73 77 78 83 86 89 92 93 94 98 100 101 101 102 103 105 106 105 105 105 102 93 86 75 69 61 49 42
54 55 58 59 60 60 63 66 68 69 73 77 82 85 90 94 96 98 100 101 100 99 100 103 107 111 111 108 105 96 88 84 76 65 56 46 36 33
54 55 60 66 68 68 68 70 74 77 82 85 88 89 92 94 97 98 98 100 102 104 106 106 108 107 105 101 95 86 79 74 67 55 43 34 31 27
65 67 68 71 73 75 77 79 81 83 86 88 89 91 92 93 95 97 101 103 105 105 103 102 100 96 92 89 84 76 68 61 55 43 32 29 27 23
68 70 73 74 75 77 80 81 81 83 84 85 87 90 92 96 98 101 100 99 97 95 93 91 88 86 81 77 71 63 53 45 39 26 27 28 32 31

GFSNE_500_spd_075.txt.gz
Wind_Speed
35 34 31 29 31 30 28 30 33 36 34 29 32 34 37 40 42 45 47 48 44 45 44 46 53 51 51 52 52 50 53 53 54 52 51 50 56 58
25 30 30 31 31 32 33 37 39 37 37 33 37 38 42 44 48 48 52 53 51 48 51 54 50 54 55 59 55 55 55 56 58 55 52 54 61 57
25 28 30 31 32 35 38 39 37 38 42 40 42 42 47 47 46 50 45 42 42 43 47 44 50 57 59 59 61 64 59 62 65 62 54 60 62 64
25 28 29 34 34 36 37 37 39 42 44 47 45 44 45 46 47 45 47 45 47 45 44 51 47 49 55 61 64 59 63 65 62 53 59 65 64 65
29 30 30 33 33 35 36 38 40 43 45 45 45 48 46 46 48 50 51 53 49 51 52 49 49 52 54 62 61 61 61 73 61 64 67 70 70 74
31 31 32 35 36 38 40 41 41 44 47 48 47 48 48 49 46 50 51 54 56 53 48 52 62 51 54 58 64 62 71 70 64 64 73 76 81 79
34 35 36 37 40 42 45 44 47 50 52 57 57 55 52 51 52 57 51 53 52 54 54 59 58 63 63 68 62 70 76 68 72 74 81 82 84 81
35 36 37 39 41 44 46 49 51 52 53 53 52 54 51 53 51 58 55 53 55 59 61 58 55 60 58 68 70 72 77 74 76 79 85 89 81 84
41 42 42 42 43 44 45 48 50 52 53 53 55 56 58 57 56 55 63 57 64 61 56 66 68 69 65 70 76 69 71 72 72 80 81 81 84 86
41 42 43 46 48 49 49 50 52 53 55 57 60 62 62 63 64 63 65 65 61 69 66 70 75 68 67 65 72 72 78 80 83 83 86 88 90 90
45 44 44 44 45 44 47 50 51 52 53 54 58 64 66 67 68 68 68 71 63 64 70 73 73 73 67 71 72 79 82 86 87 87 86 90 92 92
51 51 53 55 57 58 63 64 63 61 57 60 64 65 68 73 71 63 69 66 65 68 69 63 68 78 77 80 81 81 81 83 86 88 90 91 92 96
57 58 60 57 58 63 65 71 73 71 64 60 65 69 73 74 72 67 70 71 65 72 77 79 82 77 74 77 80 82 85 88 90 92 94 96 99 99
67 67 70 67 68 72 67 68 70 59 58 64 65 68 72 73 73 74 73 73 72 78 78 75 74 76 76 77 78 81 86 89 92 94 96 98 98 98
68 71 74 72 86 71 75 64 68 66 66 66 73 69 78 85 80 80 78 78 77 74 75 73 72 75 79 82 85 89 92 94 97 98 98 100 102 103
72 72 78 76 87 67 71 56 76 80 73 71 70 73 78 78 83 80 75 72 73 72 73 76 80 83 87 91 94 95 97 99 101 104 104 103 104 105
67 70 69 75 71 68 73 73 77 77 77 69 70 72 69 77 73 70 73 74 76 76 78 83 86 91 92 96 98 101 102 103 104 104 105 104 105 102
75 65 65 62 68 80 81 75 73 75 68 61 61 62 64 67 72 75 74 76 80 83 87 90 93 94 97 101 104 104 105 104 105 108 109 106 100 89
67 71 83 82 83 74 70 69 68 64 62 62 62 66 70 72 74 77 80 83 87 91 93 95 98 101 103 104 104 106 108 109 108 108 104 97 85 72
62 65 72 68 59 57 55 57 62 66 65 71 73 74 76 78 80 82 84 87 89 92 94 97 100 101 102 103 103 104 106 104 102 97 90 81 71 58
52 54 50 55 59 61 63 64 66 69 74 76 79 81 83 84 85 87 89 91 93 95 96 99 101 103 104 105 102 97 92 91 89 83 75 65 56 44
57 57 57 59 61 63 65 68 71 75 79 82 83 84 84 86 86 87 89 91 94 98 98 98 99 98 97 95 90 84 79 78 76 68 58 46 37 29
60 63 65 67 68 70 71 73 75 77 77 79 81 83 84 86 88 91 94 95 95 92 90 88 86 85 85 82 79 75 69 61 53 40 26 23 23 25

GFSNE_500_spd_081.txt.gz
Wind_Speed
29 33 35 33 32 33 35 34 35 36 37 37 36 35 34 37 35 38 40 40 41 39 42 43 46 48 48 48 43 44 42 42 45 48 50 49 52 52
34 35 34 34 33 35 39 38 38 37 38 38 44 42 41 42 39 43 45 44 44 45 46 48 51 50 48 47 49 47 48 48 45 47 48 52 56 51
29 33 33 34 36 36 41 42 40 42 42 34 42 44 43 45 47 48 47 47 48 48 49 50 50 51 51 50 51 53 52 50 52 53 52 54 52 53
23 26 26 28 30 31 35 38 42 44 43 40 43 45 48 50 50 50 48 49 52 51 48 49 48 51 54 55 50 53 56 58 56 55 57 51 54 55
25 27 27 31 30 32 34 38 39 42 46 48 47 47 50 51 52 52 49 50 50 51 55 55 56 56 56 57 58 56 57 56 54 52 53 60 57 58
30 29 30 32 33 37 39 40 41 45 47 50 51 50 52 51 53 51 49 51 52 55 55 56 57 55 55 56 58 57 56 57 61 61 64 67 61 58
36 34 34 35 36 38 42 41 44 48 50 52 54 53 52 50 52 51 52 51 52 54 54 55 56 57 59 58 59 59 61 63 63 64 64 64 64 65
35 35 37 42 42 43 44 45 48 50 52 54 55 57 53 53 51 53 52 54 55 53 56 56 55 54 55 60 60 61 61 63 64 68 67 69 67 73
36 37 39 38 40 45 48 51 53 54 58 58 59 58 59 57 56 56 57 52 52 57 57 58 58 65 63 66 71 64 63 65 69 68 70 69 70 73
44 43 44 44 45 46 48 52 53 56 56 56 57 54 52 50 52 55 57 61 64 64 64 66 74 72 72 78 70 71 69 70 67 62 70 76 77 76
49 51 54 53 53 52 55 55 56 57 59 60 62 61 61 60 59 60 62 67 71 69 68 74 83 81 80 80 72 76 71 71 71 78 83 82 77 79
61 59 57 55 60 61 61 62 66 66 66 67 68 68 69 72 71 73 73 72 74 72 80 82 94 92 89 70 67 69 73 77 81 86 88 78 80 84
59 61 60 61 61 61 71 73 77 73 75 74 71 75 76 73 76 75 77 79 82 86 81 88 84 84 84 75 74 73 74 78 81 83 82 86 86 75
63 60 62 65 62 71 69 66 65 68 77 71 73 78 81 84 82 74 79 77 76 86 88 77 67 67 69 68 72 73 77 79 81 79 75 70 72 76
67 67 67 69 71 67 62 65 74 69 66 71 71 69 78 76 82 86 94 82 82 83 88 74 71 69 76 78 80 77 72 68 69 71 74 78 81 84
68 68 69 71 76 81 84 86 82 80 81 78 80 78 79 82 80 87 92 83 79 75 73 76 72 73 72 68 66 67 68 72 76 79 81 84 86 90
67 69 70 71 72 75 76 76 76 76 80 81 85 83 80 79 80 84 79 72 72 73 70 65 63 64 66 69 71 76 78 80 83 86 88 88 91 92
71 72 72 72 73 72 72 72 69 67 68 69 71 73 70 71 72 70 69 71 70 66 65 67 69 71 74 76 79 82 83 85 89 90 90 90 92 95
77 78 78 77 76 73 71 68 67 65 66 68 71 70 67 67 66 65 65 65 66 68 70 73 76 78 79 80 82 86 87 89 89 91 95 98 98 99
79 77 75 73 71 69 68 66 64 62 64 62 60 60 61 62 63 65 68 69 72 74 76 76 78 79 81 81 82 86 90 92 94 97 100 102 103 103
63 62 63 60 61 64 65 66 66 64 64 64 64 65 66 67 70 71 73 74 76 76 77 80 81 84 86 88 89 91 95 98 100 102 102 99 92 89
60 57 59 60 61 63 65 65 66 66 67 68 68 68 69 71 73 75 76 78 79 80 81 82 85 87 89 89 90 91 90 89 89 87 87 83 78 73
59 60 61 63 65 64 64 65 65 64 64 64 65 67 68 69 70 71 74 76 78 80 82 84 85 83 82 78 77 77 76 76 76 73 74 71 61 51

GFSNE_500_spd_087.txt.gz
Wind_Speed
27 28 28 31 33 33 31 29 29 28 28 28 32 34 32 34 34 36 35 34 35 37 36 37 39 42 43 42 41 42 45 47 48 48 50 51 51 48
21 21 22 26 28 30 32 30 30 30 32 30 33 36 36 38 39 41 43 44 46 45 43 44 46 47 46 47 48 50 50 51 52 53 55 53 48 47
21 23 22 24 30 34 32 33 31 34 39 36 39 38 41 44 45 45 43 44 44 46 50 54 55 54 53 52 53 55 55 54 55 55 55 55 55 57
23 22 20 22 21 21 26 29 32 33 37 38 36 39 42 42 42 45 50 49 48 48 46 48 50 51 54 56 58 58 58 57 58 58 58 59 60 60
22 24 24 26 24 26 26 29 31 34 37 40 37 38 40 41 42 44 43 46 48 48 50 51 53 55 56 58 59 61 61 61 63 62 62 60 59 58
25 25 26 28 28 30 32 32 34 37 38 40 40 39 41 40 45 45 47 48 48 51 52 53 54 56 58 59 61 64 66 66 66 65 64 63 60 59
28 29 30 32 34 36 37 36 39 40 41 43 46 46 44 44 45 47 50 49 51 52 54 55 56 58 61 61 63 65 67 68 67 68 69 65 63 62
29 31 33 35 34 35 37 39 41 42 43 45 46 47 46 47 47 47 48 51 52 51 55 58 59 62 64 67 69 70 71 71 71 68 67 69 69 71
32 33 34 35 36 36 37 39 40 43 48 49 50 51 50 52 52 54 54 55 55 56 59 62 64 65 65 65 65 67 69 70 70 71 73 76 76 76
36 37 38 39 41 41 42 43 48 50 50 51 54 58 59 60 63 63 63 64 62 71 60 70 75 72 74 69 73 74 75 76 76 76 78 82 83 85
46 47 48 48 49 49 51 54 56 56 57 57 63 66 63 68 69 67 68 71 71 70 71 75 79 77 80 75 78 86 82 86 90 86 80 78 83 88
48 51 48 51 53 56 56 57 53 62 61 63 67 71 70 69 64 70 77 75 75 82 83 86 93 89 87 85 84 87 86 90 88 87 87 88 80 74
53 55 58 59 58 60 61 63 64 61 64 72 71 73 77 79 80 78 77 81 83 84 84 86 89 85 81 81 84 85 83 85 85 87 88 90 91 85
50 53 56 59 61 63 64 63 61 62 64 66 69 72 75 75 75 77 78 81 81 81 82 83 81 80 80 86 88 84 84 82 82 81 79 77 76 74
56 58 59 60 61 62 63 65 66 68 70 72 74 76 77 78 79 81 82 83 83 84 84 84 82 82 79 79 76 75 73 72 73 71 69 68 68 68
57 58 60 62 64 66 68 69 71 73 74 76 78 80 82 84 86 87 88 89 89 88 87 86 83 79 76 75 74 73 73 73 71 70 67 67 67 67
60 62 64 66 68 69 71 73 75 77 79 81 83 84 85 86 86 85 83 83 81 75 72 69 69 70 71 72 72 71 71 70 68 67 68 67 70 71
63 65 67 69 72 74 75 76 77 76 74 72 69 65 61 59 59 60 59 60 60 60 60 63 65 68 71 71 71 70 70 71 72 71 71 70 71 74
68 71 72 73 74 75 73 70 67 63 62 60 59 61 62 62 63 63 63 63 63 65 65 67 67 68 70 72 72 72 73 73 72 72 71 72 74 79
73 74 74 73 71 69 67 66 65 64 65 65 66 66 66 66 67 69 69 69 69 69 68 68 68 68 69 69 70 70 70 71 72 74 75 76 79 82
75 74 73 70 68 67 68 70 70 71 71 71 71 72 73 72 71 71 72 72 71 70 69 69 70 70 70 71 71 72 75 75 76 77 77 74 74 74
71 71 70 70 71 71 71 72 73 72 72 72 72 73 74 74 74 73 73 72 72 72 71 71 71 71 72 72 73 73 72 70 71 69 69 67 70 66
65 66 67 68 69 71 72 73 73 72 72 72 74 73 73 73 74 74 74 74 73 73 73 72 72 71 70 68 65 61 58 57 54 57 58 58 57 57

GFSNE_500_spd_093.txt.gz
Wind_Speed
31 31 38 35 34 34 31 34 34 32 30 31 33 32 31 29 25 25 26 26 27 29 29 30 30 32 30 31 34 36 38 39 39 39 42 44 45 47
35 34 31 30 32 31 31 31 31 31 31 31 31 31 30 30 30 29 30 31 31 32 32 34 37 39 39 40 42 40 40 40 40 44 48 50 51 52
32 29 29 30 31 29 28 24 23 22 23 28 31 33 33 30 30 31 29 30 30 32 33 37 37 37 40 41 41 42 43 44 45 47 49 50 52 53
34 34 33 30 26 25 22 19 21 25 25 23 25 25 26 25 26 28 29 31 33 32 34 36 38 40 42 44 45 46 47 48 48 51 53 54 56 58
27 26 21 20 20 19 24 23 23 25 25 27 22 26 28 27 31 31 32 34 35 37 38 41 43 46 48 50 51 52 53 54 55 55 58 60 61 62
18 19 21 21 22 23 22 22 24 25 28 32 32 29 33 32 36 36 38 38 36 38 40 43 45 46 47 48 50 52 53 54 54 56 58 60 62 63
20 20 20 21 22 23 24 26 28 30 30 30 29 29 26 28 30 33 34 36 39 42 45 48 50 50 53 55 57 57 54 54 58 63 66 68 69 70
24 25 25 26 26 26 25 26 29 28 28 30 32 33 35 36 37 39 40 42 42 49 50 51 53 55 58 61 64 63 62 60 58 66 68 71 77 81
23 22 23 23 23 25 27 29 30 32 33 34 36 39 41 44 46 47 44 49 54 57 62 60 59 59 65 68 68 68 67 71 72 74 79 82 80 83
24 25 26 28 29 31 34 35 36 38 40 41 41 42 44 52 49 53 54 55 62 64 64 67 68 67 72 74 71 76 77 79 82 83 81 81 83 83
28 30 32 34 35 35 37 40 41 40 45 42 52 54 52 57 56 60 62 66 71 65 66 72 76 74 75 78 80 81 81 82 83 84 84 85 86 87
32 34 36 38 39 41 46 48 50 50 48 50 51 51 52 53 56 59 62 65 68 70 72 73 75 77 78 79 81 82 83 85 86 87 88 90 91 92
38 39 41 35 50 47 46 45 48 48 48 50 51 53 56 58 60 63 65 68 70 73 75 77 78 80 82 83 83 84 86 87 89 89 90 90 90 88
46 49 52 54 52 49 49 53 52 52 54 56 59 61 62 65 67 69 72 74 76 77 78 80 82 84 85 86 86 87 87 86 83 82 82 77 71 68
48 49 50 51 52 53 53 55 58 60 62 65 67 69 70 72 73 74 75 77 80 82 83 85 85 87 88 88 86 85 82 79 78 74 72 71 71 70
49 51 52 54 56 58 60 64 67 68 70 71 72 74 75 77 78 79 80 82 84 84 85 86 87 86 86 83 81 80 79 78 78 77 77 77 78 77
54 56 58 59 62 64 66 68 70 72 75 77 79 80 81 81 83 84 85 86 87 88 88 87 85 84 82 81 80 79 80 81 81 81 81 80 81 81
58 61 63 65 67 69 70 73 75 76 79 80 81 82 84 85 85 87 89 89 90 89 88 84 82 82 82 81 81 82 82 82 81 81 81 80 79 80
61 64 66 69 72 73 74 75 77 77 79 80 82 84 86 88 89 90 90 89 87 84 82 80 80 81 82 82 83 82 82 82 81 81 80 80 79 79
64 66 68 70 70 72 74 75 77 79 81 83 86 88 89 90 90 89 87 85 84 84 84 83 83 84 85 84 84 83 84 83 81 79 78 77 78 78
65 67 70 72 73 75 77 79 81 83 85 87 88 89 89 87 86 86 86 85 86 86 87 87 87 87 87 86 84 82 81 79 77 73 70 68 67 64
70 72 74 76 78 80 82 84 86 86 87 87 87 88 88 88 88 88 89 89 89 89 88 87 86 84 82 80 77 74 71 67 64 59 55 52 51 49
75 78 80 82 83 84 84 85 85 86 87 87 88 89 89 90 91 91 90 89 87 85 82 79 77 75 72 68 63 59 56 54 52 51 50 48 48 47

GFSNE_500_spd_096.txt.gz
Wind_Speed
41 42 40 36 34 28 25 29 30 32 31 31 32 31 28 28 28 28 27 27 26 25 25 26 26 26 26 27 28 29 31 32 35 36 36 38 40 41
42 40 36 35 35 32 31 32 31 32 31 30 26 27 26 26 28 29 29 30 31 30 28 28 29 29 29 30 32 33 33 34 35 36 40 41 42 43
48 40 35 35 28 30 30 30 32 32 28 25 24 21 23 25 29 31 31 31 31 28 28 29 30 30 32 32 33 35 35 37 39 40 42 43 45 48
44 45 35 28 27 30 29 30 30 29 20 18 21 21 20 22 23 26 27 27 27 25 27 30 32 34 35 36 38 40 40 40 41 42 45 47 49 50
33 28 30 33 30 31 33 29 24 22 22 23 19 22 21 22 26 26 27 29 30 31 32 36 36 35 36 38 38 41 45 46 47 49 50 52 52 51
23 28 28 28 31 27 24 25 26 26 26 24 20 24 24 27 30 30 31 33 33 35 34 34 34 36 38 41 44 46 48 50 51 55 59 60 65 66
26 26 24 23 22 25 26 27 28 28 27 27 24 28 28 28 30 30 31 30 33 34 37 39 41 42 45 47 46 51 57 59 59 60 62 65 68 65
26 29 27 26 24 25 27 28 26 27 29 32 31 30 30 30 30 32 34 34 37 40 43 45 45 49 54 52 55 59 61 60 66 66 70 72 75 70
26 25 25 25 27 28 29 29 30 30 31 33 34 35 35 36 38 39 40 39 42 45 50 49 50 57 59 62 67 67 62 67 70 73 73 73 75 77
28 28 27 27 27 29 29 30 31 32 34 36 38 39 40 43 41 41 40 43 46 50 54 60 62 65 64 66 66 66 70 71 73 74 75 77 78 79
27 28 29 29 30 30 32 35 36 35 36 38 41 44 47 46 51 55 58 59 56 57 58 60 62 63 65 66 69 71 73 76 78 80 82 83 84 84
31 30 30 31 34 34 36 38 42 41 39 39 44 40 43 45 52 52 53 54 56 58 61 62 65 68 71 73 76 79 81 82 83 85 86 87 88 88
34 36 35 37 36 34 43 44 40 37 42 50 56 51 50 53 54 55 57 59 62 64 67 70 72 75 78 79 82 84 85 85 86 88 88 88 90 89
41 43 45 44 39 44 47 50 53 55 54 52 54 57 59 58 60 62 65 67 69 71 73 76 79 81 83 85 87 88 89 89 90 90 91 90 89 85
52 51 48 48 49 51 55 57 55 54 55 55 56 58 60 63 66 68 69 72 75 77 79 81 83 85 87 89 90 91 92 93 93 93 91 88 85 83
58 56 54 52 52 53 55 55 55 56 56 58 61 64 66 68 71 73 75 77 79 81 82 85 87 88 90 93 93 94 95 95 93 88 85 83 84 84
64 62 60 58 57 57 57 58 59 59 62 64 66 68 71 73 75 76 79 81 83 85 86 88 89 91 93 95 96 96 95 92 88 86 85 84 85 87
72 72 69 66 62 61 61 61 63 64 66 69 71 74 76 77 79 80 82 84 86 88 91 92 93 95 96 96 94 91 90 88 87 87 88 88 88 90
82 82 77 72 65 63 63 63 64 66 69 72 75 77 78 79 81 83 86 89 92 93 95 97 95 93 93 92 92 91 90 91 91 91 92 91 90 89
64 61 62 65 64 61 58 61 64 68 71 75 77 80 82 84 86 89 91 94 95 96 96 97 95 93 93 93 93 94 95 95 92 91 88 84 83 80
53 53 54 56 57 61 63 67 70 74 76 79 82 85 87 89 92 93 94 94 95 95 95 96 96 97 96 96 96 94 91 90 86 81 77 70 64 60
56 58 61 63 66 69 72 75 77 80 83 85 88 90 92 92 93 93 94 95 96 98 98 98 98 96 95 91 88 84 79 77 72 65 58 55 53 53
65 67 70 72 75 77 79 81 83 85 88 89 90 91 92 92 94 96 97 99 100 98 97 94 90 86 82 79 76 70 64 60 55 56 58 57 56 54

GFSNE_500_spd_102.txt.gz
Wind_Speed
33 31 38 39 39 40 38 39 42 40 29 33 35 32 32 33 34 31 32 33 33 33 31 33 32 31 32 31 32 31 33 33 33 32 32 32 32 33
34 35 36 40 42 42 38 36 38 40 32 35 35 36 36 33 35 35 34 35 33 32 35 33 31 33 34 33 33 32 30 32 31 31 32 32 31 32
36 34 35 45 37 40 41 40 39 40 39 38 35 34 34 35 34 33 35 34 35 35 36 32 32 33 34 33 33 33 32 32 33 34 34 35 34 33
38 36 39 39 38 43 43 41 41 40 39 37 35 34 33 34 33 35 35 35 33 36 34 31 32 35 33 33 33 34 35 36 37 35 34 35 36 38
41 40 41 43 40 44 45 43 42 41 41 43 37 35 34 33 35 35 33 34 37 34 31 32 33 33 34 35 36 38 35 35 35 37 39 41 43 45
36 37 36 40 44 44 45 45 41 37 36 37 41 36 35 36 38 35 33 38 36 33 33 34 35 37 38 37 36 35 38 39 40 43 46 48 49 49
35 39 39 41 43 45 43 42 38 37 38 38 40 39 38 39 36 35 36 37 36 35 35 38 38 37 37 38 40 41 43 45 46 47 49 50 51 54
35 38 38 38 38 45 41 37 38 41 44 41 40 40 38 38 36 36 38 37 39 38 38 38 38 39 40 44 46 45 51 55 52 51 57 57 63 63
35 33 35 34 36 38 35 35 38 40 37 36 36 36 38 38 39 37 38 39 40 40 38 40 44 44 47 50 51 54 55 57 59 63 62 60 62 64
27 31 34 38 37 34 36 37 35 36 38 41 41 40 38 38 39 41 41 41 41 42 44 44 47 47 51 54 57 58 59 64 64 64 64 65 67 69
26 33 36 38 40 40 40 42 44 43 42 39 38 38 39 41 42 42 43 44 45 46 47 51 51 54 55 57 62 67 64 64 66 68 70 72 75 77
27 34 29 28 36 39 45 43 40 38 40 40 42 44 43 44 45 46 47 48 50 48 52 51 52 57 62 64 68 70 70 69 70 72 75 78 79 80
31 32 33 34 34 37 40 41 44 45 45 45 45 46 47 47 48 50 51 52 54 54 58 60 60 66 69 71 72 73 75 74 75 77 80 82 83 86
37 38 39 40 42 43 45 46 46 47 48 49 51 52 51 54 53 53 56 57 58 60 64 69 72 71 71 72 74 75 77 79 81 82 83 85 88 91
42 44 45 45 46 49 51 52 53 54 55 54 56 58 60 56 56 59 61 67 67 67 71 76 76 73 74 76 78 80 82 83 85 86 87 90 92 95
49 50 51 51 50 52 53 58 60 59 61 61 64 61 62 64 66 67 71 70 73 77 79 79 79 79 83 84 84 85 85 85 86 88 89 93 98 101
53 50 54 58 59 60 60 61 65 65 63 66 67 71 74 75 75 75 74 77 79 82 84 85 87 88 89 90 89 88 86 86 88 91 95 98 102 105
64 65 60 58 63 69 70 68 70 72 71 76 81 81 81 82 80 84 81 81 85 87 89 89 89 90 91 93 91 87 86 89 93 98 101 104 106 107
71 73 76 71 74 78 77 78 76 81 84 85 84 84 84 86 82 78 79 80 82 83 86 88 88 86 83 82 86 88 92 97 99 103 105 106 107 110
63 64 67 69 67 68 69 77 78 80 81 74 74 74 73 75 77 79 79 79 76 76 76 76 79 81 84 88 92 96 99 102 104 106 107 108 109 107
55 58 60 63 65 68 68 68 70 71 73 74 73 71 69 68 68 68 69 71 74 77 80 82 84 88 91 94 96 99 102 105 107 107 108 105 97 84
52 52 53 54 55 56 57 57 59 60 62 62 63 64 65 66 69 73 76 78 81 83 86 89 91 93 96 99 101 103 104 103 102 99 93 88 80 68
55 55 56 57 59 60 61 62 63 65 67 68 70 71 73 75 77 79 82 84 86 88 90 93 95 98 100 100 99 98 96 93 86 78 73 69 62 57

GFSNE_500_spd_105.txt.gz
Wind_Speed
32 31 31 32 29 35 38 41 39 40 36 32 35 33 36 40 39 36 34 34 36 32 34 35 35 37 36 35 33 32 29 26 28 29 31 33 33 33
34 34 33 33 33 36 39 38 42 39 38 38 36 37 39 41 40 38 36 37 35 34 36 37 39 39 38 35 32 30 31 32 33 32 32 32 33 35
33 33 35 34 36 37 41 39 42 42 38 35 36 40 40 40 39 40 40 37 37 40 40 38 39 39 39 34 32 33 33 35 33 31 32 33 35 37
36 37 35 35 37 39 37 41 45 42 43 37 38 39 41 40 40 41 39 39 40 39 41 40 39 38 36 34 34 33 33 33 33 34 35 38 38 36
37 41 39 35 41 40 39 45 45 47 42 42 39 38 42 40 38 43 46 42 42 42 42 39 38 36 37 36 34 33 34 35 37 38 37 36 36 39
44 41 42 43 45 39 43 43 43 41 46 43 42 38 37 38 39 41 42 43 42 42 41 39 38 39 40 36 37 35 37 39 38 38 39 42 44 46
33 36 37 39 46 46 42 42 41 42 45 46 42 35 35 38 42 43 42 44 45 44 42 39 40 41 41 40 40 39 38 40 40 42 43 47 50 52
28 33 39 40 38 45 38 45 43 45 45 43 38 34 39 37 41 45 45 45 47 46 42 42 41 42 43 43 41 41 42 45 46 46 50 53 54 59
33 30 35 40 39 40 39 41 45 46 43 41 40 40 41 41 44 48 48 47 47 40 43 45 44 45 45 44 44 46 48 51 54 55 56 58 61 62
30 28 31 36 35 39 42 44 47 47 43 41 42 45 48 47 43 43 46 45 42 43 48 48 47 46 45 46 49 52 53 55 57 58 58 58 61 66
20 25 28 31 34 37 39 36 40 45 41 44 40 40 40 42 44 41 42 44 45 49 49 48 48 48 49 51 53 55 59 60 60 63 67 68 71 73
23 20 26 29 33 40 39 39 43 45 41 45 45 46 48 48 41 44 47 48 49 50 50 50 50 53 55 57 56 60 62 63 66 67 70 75 76 77
28 26 28 28 26 37 39 43 46 49 45 45 42 47 41 41 42 47 49 49 50 52 54 55 55 57 60 63 65 69 69 70 72 75 81 84 82 80
35 35 33 32 32 33 37 35 32 38 42 44 44 44 43 47 49 50 46 52 54 60 59 59 59 65 67 69 69 73 76 79 79 81 85 85 83 86
40 41 42 41 41 41 41 41 40 41 44 47 48 50 51 53 53 55 57 61 63 63 63 65 69 71 73 74 76 79 86 89 88 87 89 94 96 96
44 45 46 47 48 48 47 47 48 48 50 51 53 54 56 61 62 64 66 66 68 71 73 73 74 77 80 81 80 84 87 88 92 97 93 93 95 97
52 52 52 51 49 51 54 56 56 58 59 59 60 64 65 67 70 72 73 74 76 79 79 79 81 84 87 88 89 91 93 92 89 92 94 95 95 95
62 60 59 61 60 61 61 61 60 61 62 66 66 65 72 71 73 77 79 83 83 84 87 86 89 94 93 89 87 88 90 90 89 89 90 89 90 94
69 68 68 67 67 66 69 71 72 72 72 74 77 80 77 78 83 84 88 89 88 88 91 88 83 82 83 85 87 83 81 80 82 84 88 92 94 97
60 64 67 70 72 71 71 74 78 78 81 81 80 79 79 79 82 85 86 86 85 84 82 82 83 82 78 77 79 81 82 84 87 90 93 97 99 102
54 56 58 60 62 65 67 69 70 70 71 71 72 73 73 73 75 77 81 80 80 80 79 76 74 76 79 81 83 86 88 90 92 96 98 100 102 102
52 51 49 49 50 51 54 57 60 62 64 65 65 65 67 69 69 69 71 74 73 74 75 77 78 80 82 84 86 89 91 94 97 101 103 103 103 97
60 60 59 58 57 58 58 60 61 63 65 67 67 67 69 72 72 73 74 74 74 76 78 80 81 84 87 89 91 93 94 94 96 96 92 89 83 77

GFSNE_500_spd_108.txt.gz
Wind_Speed
35 36 36 34 34 34 33 32 33 35 36 36 39 38 34 33 38 37 39 38 38 40 38 37 36 36 36 36 35 34 33 33 31 29 28 28 31 31
35 38 38 39 38 37 38 35 35 37 38 38 40 40 38 35 37 38 41 42 42 42 40 37 37 37 37 38 38 37 36 36 33 32 33 32 32 33
38 41 43 45 40 40 38 35 35 40 40 39 40 41 41 36 33 39 40 40 43 43 41 39 39 37 39 38 38 38 37 36 33 34 33 34 34 35
40 44 44 44 43 38 36 41 36 40 38 42 43 42 39 35 35 36 41 41 45 45 42 42 42 40 40 39 38 37 34 34 35 35 35 35 34 37
41 42 43 45 46 43 42 43 40 41 43 41 43 44 41 42 38 40 40 45 44 42 46 46 43 42 42 40 37 35 36 38 37 37 36 37 37 40
42 45 45 45 46 43 44 46 40 40 45 46 46 46 46 44 42 40 41 44 46 44 44 43 43 42 41 41 39 38 39 39 39 38 41 42 38 38
42 48 45 46 48 50 47 45 40 43 42 43 44 47 48 45 42 40 37 39 40 41 42 44 43 43 43 43 42 41 41 40 41 43 44 41 40 41
41 45 44 38 36 37 41 44 43 42 46 46 50 46 47 48 41 36 39 39 39 43 45 45 43 45 44 45 42 44 43 44 45 47 46 45 45 47
43 40 30 33 33 37 38 38 42 47 48 43 43 43 40 45 44 36 34 36 41 43 46 49 47 48 48 46 43 47 48 48 49 49 48 49 51 53
42 37 29 30 30 36 38 38 38 45 52 45 44 43 44 43 41 43 41 43 45 46 47 50 47 50 48 45 46 50 50 51 51 51 52 54 57 60
36 36 23 24 31 36 36 42 39 39 40 42 45 45 46 48 46 42 46 49 49 46 44 44 48 48 46 47 50 52 54 53 53 56 58 60 62 65
32 37 38 22 20 32 33 36 35 39 38 42 48 51 50 50 47 46 48 46 49 47 51 49 49 51 50 51 53 54 55 56 59 61 63 66 69 70
37 33 30 32 27 21 24 33 36 40 37 39 44 46 48 49 51 50 48 47 50 48 47 48 51 54 54 55 57 58 59 61 62 64 68 71 74 76
42 38 35 35 32 32 33 30 33 39 42 41 45 46 48 47 49 50 48 50 48 48 45 46 54 58 58 55 59 64 65 66 68 71 74 77 80 82
46 45 42 38 38 40 37 38 39 39 40 42 35 36 40 42 44 47 46 44 46 51 53 56 58 58 53 58 65 73 72 74 74 77 81 84 86 88
50 50 48 45 44 44 44 46 46 44 44 45 43 44 45 44 46 48 52 53 55 58 60 61 63 64 68 71 73 74 76 81 83 86 89 91 93 94
61 59 55 55 53 54 53 50 50 52 50 52 51 49 50 52 53 55 55 58 59 58 65 69 69 72 74 77 80 82 84 85 89 93 96 98 100 98
58 58 60 61 63 57 58 58 58 59 57 57 59 61 61 61 63 62 63 66 69 70 70 70 73 78 82 85 86 89 90 92 94 93 95 95 94 95
54 54 55 60 65 65 63 65 66 67 66 65 66 68 67 68 69 70 71 73 73 74 76 80 83 83 81 84 88 91 92 91 90 90 90 91 90 87
47 49 53 56 58 59 63 68 68 70 71 71 69 70 72 71 71 73 75 77 77 79 80 81 82 82 84 86 87 87 86 86 86 86 85 86 88 90
47 46 48 52 54 57 58 59 60 61 62 62 65 66 67 70 72 73 74 75 76 75 75 76 77 78 78 79 79 80 82 84 85 86 86 86 87 89
58 57 56 56 55 55 54 54 56 58 61 61 61 62 63 65 68 69 70 72 72 71 72 72 73 74 74 76 77 79 80 82 84 86 88 89 91 91
65 65 65 65 65 62 64 63 63 63 62 61 61 60 61 62 63 64 66 68 69 70 72 75 77 78 79 79 80 81 82 84 87 91 93 93 94 94

GFSNE_500_spd_114.txt.gz
Wind_Speed
34 37 38 36 35 38 37 37 37 35 30 29 33 33 33 32 40 40 43 43 43 40 36 33 39 42 42 41 40 40 38 36 37 38 38 35 32 34
34 38 39 37 38 38 38 38 38 38 35 29 31 37 35 38 34 44 44 46 45 40 37 34 35 43 44 45 43 44 40 38 38 39 40 34 34 34
37 38 38 39 40 39 38 38 39 40 41 37 38 37 38 39 40 43 47 47 47 42 40 37 34 37 44 47 45 46 42 38 38 40 40 36 36 35
38 39 38 41 40 38 38 41 40 39 42 42 44 40 41 41 42 41 40 45 48 47 44 40 38 38 40 45 48 47 45 40 39 42 41 38 38 37
40 40 40 41 37 37 40 37 37 39 42 41 40 41 41 42 42 41 46 46 51 52 42 41 38 37 40 42 45 48 46 43 43 44 41 40 39 38
42 40 41 40 38 38 38 37 38 40 41 43 42 42 41 41 44 48 41 48 54 46 47 45 41 41 42 44 46 47 49 49 48 47 42 43 40 40
47 42 41 41 37 37 38 37 40 41 43 45 46 47 44 44 48 48 47 49 50 52 54 49 46 45 44 43 48 48 51 54 48 42 44 43 41 42
43 39 40 38 36 38 39 40 42 42 42 47 48 46 46 46 46 51 51 52 51 52 54 50 48 48 49 49 49 50 51 46 43 44 42 42 42 44
38 36 36 36 36 37 39 44 46 43 42 43 40 45 45 45 47 49 52 53 53 51 51 51 53 52 52 53 51 48 46 44 44 44 43 43 44 46
35 33 34 37 37 39 42 43 45 42 42 41 44 43 48 50 50 53 57 55 56 55 55 57 53 52 52 49 48 47 46 46 45 44 45 46 47 47
34 38 39 39 41 42 44 43 44 45 41 42 46 48 45 43 43 52 54 58 54 54 54 53 53 52 51 47 46 47 46 45 44 45 45 48 53 53
42 40 39 38 36 38 39 40 44 44 42 44 40 45 49 52 48 44 53 54 51 57 61 58 56 55 57 49 47 46 45 46 47 50 52 52 55 60
44 44 44 44 45 45 46 45 44 44 44 41 40 41 43 49 46 49 52 56 55 54 55 56 54 54 54 51 51 51 53 51 55 59 63 65 62 60
48 52 51 48 51 49 46 46 44 46 45 44 40 41 36 42 48 51 54 53 55 53 54 54 50 51 53 53 55 62 62 61 60 61 69 63 59 58
50 52 49 53 53 51 51 51 48 46 46 47 47 41 49 44 40 39 38 40 46 49 48 54 52 54 59 56 56 59 61 63 64 64 64 58 55 57
57 59 57 55 56 57 52 50 51 51 49 48 48 45 45 45 48 44 45 42 45 48 54 49 52 56 55 59 62 65 66 62 61 59 58 61 63 65
54 57 59 58 59 60 55 53 52 54 52 51 52 51 51 51 52 52 50 49 48 45 47 49 53 59 61 61 59 57 57 59 59 60 61 65 66 67
45 48 49 53 59 62 63 62 63 62 62 63 60 61 62 61 60 60 54 53 55 54 51 53 56 54 52 53 57 58 56 59 64 67 70 72 74 74
50 50 50 50 52 55 58 61 65 67 69 69 68 66 67 66 66 66 67 65 67 63 62 62 58 57 56 58 62 66 68 68 70 73 75 77 78 78
55 56 56 56 56 56 56 56 56 59 61 62 65 68 70 70 70 71 71 70 68 68 71 70 70 69 68 67 68 67 71 74 77 76 76 77 78 80
65 62 61 62 62 62 60 59 60 60 59 59 61 64 67 68 68 69 71 72 72 72 71 72 72 72 72 73 74 74 76 78 78 78 78 79 79 80
74 74 73 71 68 68 68 67 65 64 63 63 64 64 64 66 67 69 71 72 74 74 75 75 77 78 77 77 77 77 76 76 76 76 77 77 77 77
80 80 80 79 78 75 74 73 72 71 69 69 67 68 69 70 70 70 69 68 68 68 70 72 73 73 73 72 73 73 72 72 72 73 74 74 74 75

GFSNE_500_spd_117.txt.gz
Wind_Speed
44 47 47 46 45 41 39 36 36 36 32 33 37 33 36 35 32 32 33 34 40 42 42 39 39 42 39 33 40 44 42 41 40 39 37 36 36 37
45 49 45 46 46 42 39 38 39 37 36 34 35 38 37 37 33 32 34 35 40 45 44 45 46 44 37 34 35 43 43 43 43 42 39 39 39 38
44 49 51 48 42 41 39 41 40 38 38 33 38 37 42 40 40 36 37 39 35 40 45 45 44 47 38 36 33 40 43 45 46 45 45 42 42 40
46 49 42 43 36 37 40 42 38 38 39 39 38 41 41 44 45 46 42 39 41 40 44 49 47 44 39 40 39 37 41 46 47 47 48 44 42 42
46 52 40 41 34 36 40 40 36 38 40 41 36 38 41 43 46 47 45 43 42 41 42 44 49 49 46 43 43 41 42 43 46 49 49 49 46 45
49 46 41 41 39 37 39 39 39 40 42 37 37 38 40 38 43 44 44 44 43 43 43 45 45 47 48 47 47 43 42 44 45 47 50 51 50 50
49 44 42 40 42 41 42 41 41 41 42 39 39 38 38 40 41 45 49 47 44 44 46 44 47 48 53 52 51 46 46 45 44 46 50 53 55 56
46 44 44 46 45 44 46 43 41 43 40 41 44 43 43 46 45 47 52 53 47 47 44 48 48 54 56 56 55 51 49 48 47 47 49 53 53 50
47 44 46 49 49 50 46 43 44 43 41 43 44 45 46 46 46 47 51 53 51 46 50 48 52 47 51 56 60 56 52 53 54 53 52 54 54 46
45 47 54 51 58 48 45 44 43 43 42 42 44 47 46 43 43 40 41 52 52 52 50 50 53 53 54 57 58 56 56 55 56 56 57 55 51 47
62 40 53 42 38 42 42 43 44 43 45 45 46 46 46 44 43 44 44 47 53 53 52 54 54 55 59 62 58 60 59 57 56 56 55 52 50 50
40 41 36 38 35 39 46 46 47 44 43 42 42 46 47 47 45 40 46 50 53 51 54 59 62 61 61 59 62 58 55 54 58 57 55 54 51 47
30 34 38 43 47 48 48 51 50 48 48 50 50 51 49 48 47 44 40 49 54 56 55 54 58 59 64 66 61 59 58 56 55 54 53 52 51 51
47 49 45 45 52 47 47 49 52 54 57 55 54 52 48 48 51 46 43 45 48 47 49 53 53 56 58 59 61 59 54 57 56 54 52 53 53 60
38 49 52 54 54 56 58 57 59 59 59 59 58 55 55 52 51 51 47 43 42 39 47 45 50 55 55 57 54 47 49 55 56 58 59 60 63 66
50 51 53 51 53 58 64 63 59 58 59 59 61 60 61 57 54 52 51 49 44 40 41 45 41 44 45 48 50 51 53 51 54 59 63 64 66 69
43 42 44 46 52 58 66 68 66 64 67 63 63 64 62 61 61 56 51 50 49 50 47 47 47 45 47 50 53 55 57 58 59 59 62 67 69 69
49 50 50 50 50 51 52 53 55 58 61 66 66 68 68 65 63 62 59 56 54 54 56 53 53 52 52 53 52 54 55 62 63 65 67 68 67 66
52 55 56 57 58 58 58 58 58 58 58 58 62 68 69 68 70 70 69 67 66 63 66 66 61 60 57 61 62 60 62 63 64 64 65 62 64 65
60 61 61 61 61 63 64 65 65 65 64 64 64 63 66 71 74 77 77 76 74 72 70 70 69 67 66 66 66 65 66 68 70 72 71 71 71 72
72 73 74 74 74 72 70 69 71 72 72 71 70 69 68 68 68 68 69 69 70 72 73 73 74 74 74 76 78 80 79 77 77 77 77 76 75 75
83 83 82 82 83 83 82 82 79 78 77 78 76 75 74 73 72 71 70 70 67 68 69 69 69 69 70 72 73 75 74 73 73 73 73 73 72 73
89 89 89 88 88 87 86 86 86 86 85 83 83 82 79 77 76 76 74 73 72 72 71 70 68 67 68 69 70 71 71 71 70 71 71 71 71 72

GFSNE_500_spd_123.txt.gz
Wind_Speed
56 60 39 45 47 40 37 40 40 41 37 36 36 35 34 38 37 35 31 28 29 27 25 26 25 31 36 40 45 50 51 51 48 44 46 44 44 46
58 54 46 49 50 44 40 40 43 42 40 38 37 37 37 38 38 39 35 29 27 30 29 28 29 28 35 36 44 46 47 49 42 40 42 40 42 50
57 51 51 51 50 44 43 40 45 46 46 44 39 40 39 41 40 39 39 36 30 30 31 34 35 36 33 37 40 41 44 42 45 40 40 40 40 50
58 52 50 55 55 47 45 47 47 48 47 45 43 40 49 42 42 39 40 39 36 33 36 38 39 40 41 37 42 30 43 48 48 48 42 44 43 45
58 57 56 57 57 55 48 51 49 47 49 50 49 44 43 41 43 42 41 43 40 38 41 40 40 41 43 42 40 42 41 38 46 46 46 47 47 45
74 64 66 63 65 59 49 50 48 48 51 52 49 46 46 42 43 43 43 42 41 40 41 43 44 44 42 43 42 44 45 44 44 46 51 50 49 47
50 63 71 65 64 57 54 51 50 51 52 52 47 47 48 40 46 43 44 44 42 40 42 43 45 45 45 44 44 45 46 47 47 46 49 53 51 50
51 58 61 64 58 58 56 54 52 53 53 50 53 50 51 48 45 45 46 48 46 42 45 45 47 47 46 47 45 47 48 45 47 47 53 52 54 52
61 58 58 60 55 56 54 56 58 56 55 58 43 42 49 55 46 43 47 51 50 46 46 45 43 44 43 44 47 45 48 48 53 46 50 48 49 53
46 49 49 48 57 58 61 59 58 57 56 44 48 50 52 50 46 48 45 52 53 49 49 44 41 41 42 44 44 42 48 52 50 48 50 48 50 54
37 40 47 46 51 59 69 55 53 65 52 55 58 48 51 52 53 52 50 53 54 52 50 48 44 42 42 40 39 40 44 52 52 53 45 46 54 53
41 41 47 52 56 52 53 52 52 50 54 60 59 56 56 59 58 57 58 57 56 53 50 52 48 45 44 42 39 39 42 46 54 55 55 56 52 50
44 45 46 61 55 56 53 58 54 56 54 56 58 57 54 53 52 55 53 53 54 53 50 51 49 47 46 45 41 40 44 48 50 55 59 58 58 54
42 47 46 48 51 45 49 52 58 53 50 53 55 51 52 47 48 49 50 52 54 54 56 56 55 51 49 50 45 44 41 43 50 54 56 59 60 63
24 26 28 35 37 39 45 48 47 49 52 50 52 54 54 54 56 60 65 64 59 60 60 59 58 57 53 50 51 49 47 44 44 52 55 58 59 63
33 36 38 39 40 39 40 40 41 47 51 54 56 58 58 61 60 61 61 61 62 62 61 61 62 61 59 57 56 55 52 50 47 45 49 53 55 57
36 38 39 40 41 44 46 49 51 53 54 53 54 57 58 59 59 59 59 62 65 66 66 66 64 61 60 61 61 62 58 55 53 51 48 49 53 54
43 44 45 47 49 51 52 54 55 56 58 61 62 64 64 63 61 62 64 64 65 67 68 70 72 71 69 67 65 66 65 61 59 57 59 57 55 53
47 49 51 53 55 57 59 60 63 65 67 68 68 67 67 67 68 69 69 68 70 72 71 69 69 71 73 74 71 69 68 68 66 63 62 63 62 58
58 60 63 66 67 67 68 68 69 71 74 76 78 78 77 76 75 74 73 73 74 74 74 75 75 75 74 74 72 71 72 73 73 72 71 70 71 69
70 71 73 74 74 75 77 79 81 81 80 81 81 82 85 86 86 85 83 81 80 79 78 78 79 79 78 79 77 76 75 74 74 74 74 75 74 74
81 81 81 82 83 85 86 88 90 89 88 86 86 87 90 91 91 92 93 91 90 88 86 85 83 82 82 82 81 80 80 79 78 76 74 73 73 75
85 88 89 91 91 91 89 85 80 75 75 76 77 79 82 87 92 94 96 97 97 96 95 93 91 89 87 86 85 83 82 80 78 76 74 72 69 69

GFSNE_500_spd_129.txt.gz
Wind_Speed
64 63 61 61 58 58 54 51 62 65 49 43 38 35 35 35 34 37 40 39 34 33 32 31 31 29 29 30 28 27 33 39 41 43 47 49 51 51
66 67 67 64 68 70 67 56 51 40 57 46 44 37 38 38 36 34 34 38 37 37 36 34 32 33 33 33 33 32 31 32 36 40 43 47 49 51
70 70 70 70 68 64 62 50 54 49 48 52 45 42 41 38 35 35 33 36 35 39 38 38 37 35 36 35 38 35 33 33 34 33 33 37 47 52
73 71 72 71 70 68 63 59 54 52 49 50 51 47 45 41 39 37 34 37 35 39 41 39 41 41 38 39 37 41 40 38 36 37 39 40 40 42
73 74 72 72 71 69 68 64 59 52 57 54 61 53 45 44 40 39 36 35 36 37 41 44 44 43 41 40 39 41 44 43 41 40 40 42 41 41
74 72 72 72 71 70 67 66 60 59 49 39 54 48 50 47 43 39 38 37 40 40 41 46 48 44 46 42 42 42 44 41 38 37 38 41 41 43
60 69 75 70 70 73 70 70 62 57 58 56 42 55 51 47 43 40 38 40 41 42 42 44 46 43 49 46 45 42 43 43 41 39 37 38 40 40
55 58 60 72 72 73 72 69 57 55 56 58 57 56 51 50 46 44 42 42 40 43 41 45 45 43 49 53 48 44 44 45 44 43 41 41 41 43
44 46 49 53 66 70 68 65 60 57 58 59 62 62 55 52 52 53 50 47 46 46 43 46 51 54 51 52 51 48 46 47 47 46 46 44 42 41
41 43 40 44 48 53 63 63 66 63 60 62 61 68 67 69 65 65 56 57 51 47 47 44 48 51 53 53 53 52 51 49 49 50 49 49 48 45
28 30 33 36 37 39 47 45 50 51 57 51 68 53 62 62 66 63 54 56 55 54 53 51 55 53 51 53 55 54 52 52 53 53 52 51 51 50
21 23 31 26 22 34 43 39 44 41 56 64 62 61 60 67 58 65 64 67 59 57 53 54 53 52 55 56 56 60 58 55 56 58 58 55 54 54
8 12 15 20 34 35 33 36 44 48 49 65 53 51 50 51 60 63 65 62 59 62 53 54 57 61 62 57 58 60 60 60 62 62 61 59 57 55
17 19 19 15 16 22 34 35 42 45 55 46 42 46 58 58 57 57 59 58 66 68 70 63 62 61 63 66 64 63 68 66 68 66 64 62 60 59
16 15 15 14 16 20 22 23 25 32 36 41 43 45 51 52 62 65 62 65 66 64 67 67 62 60 62 67 66 65 65 68 66 67 68 66 64 63
21 21 21 20 21 21 22 23 25 28 30 31 33 35 39 49 57 62 63 65 68 67 66 70 70 71 68 69 70 71 68 65 65 63 66 66 64 66
28 28 29 30 30 30 30 30 32 33 36 38 40 41 43 44 46 47 52 57 61 62 65 66 67 68 69 71 71 71 70 67 66 64 64 65 65 67
36 35 34 34 35 37 38 38 39 40 41 42 44 47 50 51 53 55 56 57 57 58 60 63 68 70 72 73 73 74 74 72 71 72 73 72 69 66
47 46 45 43 42 42 43 44 45 46 48 49 50 52 54 56 58 60 61 63 64 65 67 66 67 67 72 77 78 77 77 77 77 76 75 75 75 73
52 53 53 53 52 52 51 52 53 55 56 57 58 60 61 63 64 66 67 68 70 72 74 75 76 78 77 75 75 76 77 78 79 80 81 80 78 78
55 56 58 59 60 61 61 62 62 63 65 66 68 69 70 71 72 73 74 75 75 76 77 79 81 83 85 86 85 83 82 81 80 82 83 83 83 84
60 60 61 62 63 65 67 69 71 73 75 77 78 79 79 79 80 81 81 81 81 82 82 83 84 86 88 90 91 92 91 91 89 88 87 87 87 87
63 63 63 64 66 69 72 75 78 81 82 84 85 86 87 87 88 89 89 88 87 87 86 87 88 89 90 91 93 95 97 97 98 97 96 95 94 93

GFSNE_500_spd_132.txt.gz
Wind_Speed
60 62 64 61 53 41 50 49 48 56 53 38 40 61 53 52 44 46 44 38 38 34 35 32 34 34 31 29 25 25 25 24 23 28 28 30 34 39
62 62 62 56 60 57 56 57 54 58 56 52 53 34 54 54 48 44 43 39 39 32 34 35 36 36 36 34 30 28 27 28 28 27 30 35 38 40
59 61 63 60 61 60 60 58 59 62 61 54 51 41 45 54 48 47 43 44 40 37 35 36 37 38 38 39 35 33 33 32 31 31 31 31 31 32
58 58 59 61 62 62 62 64 63 61 57 52 44 41 30 39 50 47 47 46 43 40 37 36 36 37 37 39 40 38 39 38 35 34 35 35 35 34
50 53 58 60 62 64 64 64 64 60 59 53 47 43 41 45 42 50 50 47 43 40 40 42 39 38 38 41 40 38 40 41 40 39 40 40 40 39
52 57 58 59 62 64 67 67 65 63 61 60 50 48 46 42 44 53 58 55 50 43 43 41 42 42 41 41 45 45 43 44 44 42 42 43 42 43
43 54 57 62 66 66 65 66 68 67 65 64 58 54 51 55 47 41 56 58 53 50 49 46 42 44 47 44 45 44 47 45 47 45 45 47 45 44
33 42 51 54 52 54 62 69 66 66 68 66 63 58 53 54 57 48 38 60 54 52 48 46 48 47 47 47 44 47 46 44 46 49 48 49 49 45
22 28 37 44 47 49 51 54 63 67 65 65 63 61 57 54 55 51 48 48 49 55 51 47 49 48 49 46 47 45 45 45 45 48 50 50 50 50
25 20 25 33 36 38 41 45 49 58 67 66 62 59 57 55 54 56 62 57 55 60 59 51 52 53 51 50 51 53 51 52 50 51 52 53 51 52
14 18 20 26 33 39 41 42 45 49 55 60 64 60 57 60 59 59 57 53 58 60 58 68 61 59 57 53 55 54 54 53 53 54 54 55 56 55
7 7 6 14 18 29 35 41 47 47 49 49 53 58 58 57 54 59 59 57 61 57 68 68 74 63 74 56 59 58 58 59 59 54 54 55 56 56
23 28 22 9 7 14 24 35 34 38 44 46 46 48 47 49 53 58 61 64 62 57 62 63 75 69 64 64 62 57 60 60 58 55 55 58 59 60
21 21 19 20 20 22 23 17 11 28 33 41 50 56 57 64 62 63 60 62 61 64 62 57 66 57 65 64 63 62 58 58 59 61 62 60 62 63
20 20 20 20 20 19 19 19 20 21 22 20 19 36 47 52 56 53 56 59 62 63 57 57 59 60 59 67 62 61 66 65 65 64 65 65 65 64
28 28 27 26 26 26 26 25 25 25 24 25 27 29 29 30 30 38 51 60 63 62 61 62 62 65 66 70 72 68 66 68 68 67 65 67 68 68
37 37 37 37 37 35 34 32 32 32 32 32 32 31 33 35 37 39 39 44 46 47 52 54 59 62 66 68 68 70 70 72 73 75 75 73 72 70
36 38 40 42 43 45 45 44 43 42 40 40 40 41 41 41 41 42 44 47 50 51 53 54 55 56 57 62 65 69 73 76 77 77 77 75 74 73
47 48 47 47 47 47 48 50 51 51 51 50 49 48 48 47 49 51 51 51 52 54 57 59 61 62 63 63 63 66 68 72 76 78 78 77 76 76
54 55 56 54 55 55 54 54 54 56 57 58 58 57 57 57 56 56 57 58 59 61 61 62 64 67 69 71 72 73 72 72 73 75 76 78 78 80
61 62 64 63 63 61 60 58 58 59 60 62 63 64 65 65 66 66 66 66 67 67 68 69 70 71 73 75 77 79 81 81 82 81 80 80 80 81
69 70 72 68 62 58 57 57 58 60 61 63 65 67 69 70 72 73 74 75 75 76 77 78 78 78 78 79 80 83 85 86 88 88 88 88 87 87
72 68 64 62 61 61 61 61 62 64 66 67 69 70 72 74 76 77 79 81 82 84 85 86 86 86 86 86 86 86 87 88 91 92 94 95 96 96

GFSNE_500_spd_138.txt.gz
Wind_Speed
58 60 63 62 61 58 63 67 65 62 61 57 58 58 65 72 61 59 58 55 52 54 54 52 48 45 39 38 39 37 36 35 31 27 25 24 26 29
49 49 56 56 58 57 56 59 62 62 60 63 61 54 61 65 57 58 56 57 52 56 61 57 54 47 48 41 41 41 39 38 36 32 31 27 27 28
44 45 46 52 53 56 55 56 59 60 60 57 53 50 53 65 66 73 58 55 51 47 51 54 57 52 51 42 41 44 42 42 40 39 36 33 30 30
35 38 42 46 52 53 53 56 45 47 57 57 49 50 51 48 53 60 55 47 36 36 33 38 46 58 52 39 45 47 44 43 43 43 42 39 36 34
34 37 41 45 48 51 54 58 58 53 51 46 39 46 49 49 43 45 45 51 59 44 39 39 37 44 43 49 47 49 46 44 44 43 46 45 41 39
26 30 36 41 44 49 51 55 58 54 56 56 44 56 47 47 46 42 47 42 43 36 37 43 40 45 53 53 48 50 50 47 45 44 44 47 45 44
23 26 30 33 36 40 45 50 53 57 52 58 57 53 61 56 53 44 42 38 39 39 38 37 44 57 53 55 54 51 51 55 48 48 46 47 48 48
16 21 18 19 26 30 37 45 51 52 57 58 58 59 57 50 49 48 48 44 44 44 43 45 42 53 60 57 60 56 55 57 55 55 53 52 52 51
6 11 14 17 16 20 32 39 45 50 57 60 60 61 62 56 53 54 53 52 52 51 50 51 54 53 55 51 58 66 64 58 59 60 59 60 60 58
8 8 4 14 17 20 21 25 31 34 45 53 57 61 62 63 67 67 61 61 61 59 57 57 56 60 60 59 55 57 66 69 66 66 65 64 65 64
18 17 12 11 9 12 20 22 24 32 44 46 50 53 54 59 66 67 68 67 65 66 66 67 68 68 68 67 65 65 65 64 75 74 71 69 69 66
18 18 17 16 14 14 14 12 15 21 30 35 39 45 52 54 55 59 65 65 67 69 69 71 71 69 72 72 74 73 63 62 66 74 75 68 72 75
20 20 20 21 21 21 20 20 21 19 21 20 20 34 45 49 51 56 61 64 68 72 74 76 75 75 76 74 75 72 70 71 73 73 71 70 74 68
19 21 22 24 25 25 26 28 29 29 29 29 30 29 30 31 42 48 51 56 61 64 69 74 82 82 80 81 81 81 81 77 73 75 77 71 71 73
22 21 21 22 25 27 30 32 32 32 34 36 37 37 38 38 38 36 37 49 56 58 61 66 69 79 86 85 85 87 85 84 81 71 77 73 79 76
31 31 31 31 33 36 37 39 42 44 45 43 41 42 43 43 44 45 46 44 41 47 54 60 67 67 74 87 86 86 81 80 79 80 79 76 73 80
37 38 38 40 42 45 48 50 52 53 54 54 54 50 47 46 48 49 51 52 52 52 51 49 49 61 74 81 81 91 82 86 85 87 88 88 81 79
41 42 44 46 48 50 52 55 58 60 59 55 54 58 55 54 53 52 53 57 59 58 58 59 58 57 54 52 64 74 80 78 82 84 86 89 87 89
45 46 49 51 53 54 57 60 61 61 61 62 62 61 61 62 62 63 64 61 62 65 66 65 64 64 63 63 58 56 56 70 80 84 85 80 83 82
51 53 54 55 56 57 60 62 65 67 66 63 61 60 61 63 64 66 68 69 68 67 70 71 71 71 70 69 67 67 66 66 63 62 67 64 67 75
55 56 56 56 60 64 67 66 64 61 56 52 51 52 53 54 56 57 59 61 62 64 68 72 75 76 76 76 75 74 75 73 72 69 69 67 65 66
56 57 60 63 65 67 66 63 58 55 54 56 57 60 62 63 64 65 66 67 67 68 68 69 71 73 75 78 79 80 80 80 80 79 77 75 74 73
59 61 63 65 66 65 63 60 60 61 63 65 67 69 71 73 74 73 73 73 73 73 73 73 74 75 76 78 78 79 82 83 85 84 84 83 83 81

GFSNE_500_spd_141.txt.gz
Wind_Speed
50 55 59 60 58 53 51 52 55 59 60 59 61 58 59 57 54 52 55 55 61 72 64 55 55 53 51 47 45 39 40 38 40 38 36 32 30 28
42 46 49 53 54 52 52 54 54 55 58 58 59 63 60 58 58 56 55 56 60 69 65 58 56 56 53 53 49 47 44 44 41 39 39 35 35 32
39 39 42 48 51 51 51 52 55 57 58 55 44 62 62 59 55 58 58 55 53 58 73 56 57 59 58 57 56 54 50 48 45 41 43 39 39 38
28 31 34 36 41 44 45 48 51 54 54 53 45 53 58 53 49 59 64 56 59 55 46 59 60 61 60 61 61 59 56 54 49 47 45 42 41 40
17 20 23 27 31 38 43 44 47 50 52 49 59 41 48 56 57 54 53 56 58 59 75 65 66 61 60 63 60 55 59 60 53 51 47 46 44 45
17 18 19 23 26 30 35 39 44 46 50 52 53 54 53 45 54 53 53 51 55 54 57 73 75 64 57 56 54 58 52 58 56 55 49 49 47 47
11 16 17 18 19 28 30 35 41 47 50 50 56 67 42 39 30 36 41 39 39 42 38 58 70 65 59 54 50 52 48 50 54 54 52 50 48 46
8 15 17 18 21 20 25 28 33 46 46 50 57 59 65 40 45 44 50 39 39 41 46 45 47 46 47 53 52 52 52 52 54 57 55 53 52 51
10 7 3 4 11 14 18 20 26 31 37 41 49 49 57 65 55 51 51 50 52 51 51 49 46 48 44 53 46 61 52 56 58 61 66 59 56 55
20 19 17 16 12 6 7 15 14 19 28 34 41 50 52 55 61 66 63 59 55 52 52 54 56 60 55 50 50 52 59 59 58 63 67 68 64 61
17 16 14 14 13 14 12 9 6 12 19 25 33 38 46 52 56 58 63 64 64 64 60 65 62 60 62 59 59 60 60 64 64 68 71 73 73 70
16 16 16 15 14 14 14 14 15 16 14 14 16 31 42 46 50 52 54 56 58 63 66 70 66 68 68 70 71 70 68 67 68 70 69 69 74 76
18 18 19 19 21 21 21 20 21 20 20 22 25 27 28 29 34 44 51 54 58 61 65 67 72 77 78 77 77 76 75 72 74 77 77 73 77 69
19 20 21 21 22 24 25 27 29 30 30 32 33 33 34 36 39 42 41 39 45 54 61 66 69 71 73 77 80 82 83 85 87 82 82 83 84 79
23 24 26 27 28 29 29 31 34 35 36 37 39 39 42 45 45 47 48 50 50 48 45 51 61 66 72 74 78 80 82 86 88 89 89 89 87 81
28 29 30 32 34 36 38 39 41 43 44 45 48 49 51 52 53 55 54 55 55 56 55 54 53 51 59 67 72 74 76 80 90 93 93 94 94 94
33 33 34 35 37 40 43 46 49 51 54 56 57 57 59 60 61 62 62 60 59 60 60 59 59 59 58 55 58 67 70 73 79 82 92 96 98 100
36 37 40 43 45 48 50 51 52 54 56 58 60 62 64 66 67 67 66 66 65 63 64 64 63 61 62 64 62 61 61 65 69 76 81 82 89 96
42 44 46 49 52 53 54 54 54 56 58 60 63 65 69 70 68 66 64 62 64 68 68 67 67 69 68 66 68 70 68 68 65 62 61 74 80 84
47 48 50 51 52 54 55 56 57 58 60 63 66 68 66 64 60 56 54 53 54 56 58 61 65 69 72 73 74 74 75 74 74 73 72 69 64 68
47 48 50 53 55 56 57 58 59 62 64 65 63 62 60 59 58 58 59 59 60 61 61 62 63 64 64 65 67 69 75 81 79 79 78 75 74 72
49 51 54 55 56 57 59 60 63 65 64 63 63 64 65 65 65 66 68 69 70 71 71 71 72 72 73 73 70 69 70 71 77 80 82 81 80 79
52 54 56 57 59 62 64 65 65 65 66 67 69 69 69 69 70 72 74 75 76 76 77 77 78 78 78 79 79 79 78 76 77 77 77 80 83 83

GFSNE_500_spd_147.txt.gz
Wind_Speed
36 37 38 45 48 49 48 46 43 40 40 42 46 57 65 67 64 58 48 51 51 48 49 49 50 49 49 46 47 53 53 54 51 51 50 47 46 43
22 28 35 43 41 41 42 45 46 45 40 43 44 50 60 66 69 68 63 59 54 51 49 50 54 51 50 50 53 54 55 56 58 56 54 52 49 48
12 17 23 27 40 37 34 34 36 44 46 42 49 50 52 60 67 69 66 64 62 54 57 56 52 48 52 55 49 57 56 60 59 61 60 58 54 52
9 7 10 17 19 29 38 36 36 36 40 44 47 51 51 53 60 67 68 65 62 58 55 56 56 56 54 56 59 56 48 55 47 48 64 63 59 58
10 7 2 8 14 17 22 27 30 32 34 37 40 47 52 53 53 60 63 61 48 51 50 61 63 60 59 64 56 53 49 61 58 50 58 64 62 60
11 13 11 5 2 4 10 14 17 24 29 32 35 40 48 49 49 52 54 58 45 40 46 47 61 61 63 60 59 57 61 59 71 75 57 62 63 65
8 13 12 8 5 2 2 4 6 11 17 22 30 36 40 43 47 52 50 57 70 51 44 51 55 57 57 58 62 67 66 63 59 62 61 63 67 61
19 7 6 8 5 3 4 3 4 10 12 16 20 26 31 35 40 45 48 56 57 65 54 61 47 54 57 51 54 57 59 60 64 64 62 64 70 70
19 20 20 17 5 1 2 3 5 9 10 9 16 17 22 26 31 35 39 44 55 53 66 58 50 48 52 63 59 58 59 58 60 71 64 66 63 71
17 17 16 16 16 15 15 11 11 10 9 7 7 12 19 24 28 31 36 42 47 55 60 63 65 65 59 52 59 59 59 58 52 54 67 74 72 80
9 10 10 10 11 10 9 9 9 10 9 10 10 9 7 10 15 20 28 38 42 48 51 54 57 63 70 70 61 56 55 55 58 61 59 61 68 67
6 6 6 6 7 7 8 9 9 9 9 10 10 9 10 12 11 11 13 14 17 26 31 38 43 51 55 63 71 74 65 61 62 63 63 65 67 65
13 13 13 12 12 13 14 14 15 15 16 16 17 18 18 19 19 21 22 24 27 28 30 32 35 37 38 38 43 53 52 59 61 62 69 67 70 66
21 20 20 19 19 20 20 20 22 23 24 24 24 24 25 26 27 29 32 34 36 38 40 43 45 44 44 46 47 46 48 51 57 61 64 71 77 77
26 26 25 25 26 27 27 27 28 29 30 30 31 30 31 32 34 37 38 39 41 45 49 52 53 53 54 53 52 55 54 56 56 59 62 67 73 77
29 29 30 30 30 31 32 32 33 35 37 38 39 39 41 44 46 47 47 48 49 52 55 56 58 61 62 63 63 63 63 63 63 63 64 68 70 75
34 34 35 35 34 35 36 37 39 41 43 45 48 51 53 55 57 57 57 57 58 60 62 63 63 65 68 69 71 73 71 69 69 68 67 68 73 74
40 40 40 40 41 42 43 45 46 47 48 50 51 53 54 56 58 60 62 63 65 65 65 66 68 71 74 76 76 72 74 72 70 69 70 70 72 77
44 43 43 44 46 47 47 47 47 49 49 50 52 54 56 58 60 61 62 64 67 70 73 76 78 78 77 76 77 81 76 74 71 67 66 70 72 75
43 44 45 46 47 48 48 49 50 51 53 55 57 59 60 61 62 64 67 70 73 75 77 79 80 81 81 80 78 76 81 79 76 71 67 66 66 69
42 44 45 46 47 48 50 51 52 54 57 59 60 62 63 65 68 70 71 73 73 73 74 75 75 75 75 75 73 73 76 77 78 75 74 72 70 68
43 45 46 48 49 51 52 54 56 58 60 62 64 67 69 71 72 72 72 71 70 70 71 74 77 78 80 80 80 80 79 80 80 80 80 77 76 76
45 47 48 50 51 52 54 56 58 61 64 67 70 72 72 72 72 72 72 73 73 75 76 76 77 78 79 80 80 81 81 82 82 82 83 84 83 81

GFSNE_500_spd_150.txt.gz
Wind_Speed
14 18 27 32 35 37 37 41 44 46 48 50 51 55 61 64 61 63 63 61 57 57 58 55 53 52 53 50 51 49 47 51 51 51 52 52 49 47
15 19 20 25 30 31 36 35 37 41 44 47 48 51 52 56 60 65 65 65 63 60 59 60 58 55 57 55 54 54 53 51 51 55 54 54 51 50
11 12 14 20 21 27 30 30 32 36 40 42 48 50 50 52 59 64 68 69 64 62 57 61 61 60 59 61 58 56 58 58 57 55 57 57 56 55
11 10 8 7 12 15 26 29 27 28 28 31 41 46 48 48 47 53 63 69 70 64 61 60 61 60 63 61 56 59 63 63 61 59 63 57 62 60
16 15 10 4 3 7 14 26 29 30 28 30 31 38 45 49 50 49 50 56 65 72 75 67 63 64 63 62 57 43 50 49 57 61 62 57 60 62
14 15 14 11 6 2 7 13 20 25 29 30 32 34 38 45 51 55 54 51 53 60 70 73 73 69 66 69 73 67 65 67 57 53 57 53 64 65
8 12 13 10 9 9 6 6 6 5 11 16 23 29 33 36 42 51 55 56 56 56 56 65 70 70 71 70 67 67 68 70 65 61 60 63 56 59
20 18 13 8 7 7 5 4 6 3 1 6 12 16 24 30 34 38 44 49 52 53 52 52 63 64 60 57 65 69 73 72 67 68 67 69 67 64
14 16 17 18 17 13 10 5 3 3 4 3 4 11 13 17 22 27 32 38 44 48 52 51 53 70 77 60 56 58 67 65 66 71 72 67 68 70
10 11 12 13 14 14 13 13 14 12 11 9 6 2 7 14 17 19 20 22 28 33 38 43 50 62 61 67 66 61 56 54 60 67 68 66 67 69
9 8 7 7 6 6 6 5 5 5 5 5 4 3 3 4 5 6 6 9 16 23 30 34 40 47 55 59 63 60 68 69 64 60 62 68 67 69
14 12 10 9 9 8 8 8 9 9 9 10 10 10 9 9 9 10 12 13 13 14 16 21 28 36 43 45 55 54 59 66 67 70 71 68 68 66
19 19 18 16 15 15 15 15 15 16 16 16 17 18 18 18 19 20 20 21 22 24 25 27 29 31 33 37 39 42 41 43 52 60 67 81 77 74
22 23 23 24 25 25 23 22 22 21 22 22 23 24 25 27 28 29 30 30 32 33 34 35 37 39 41 42 43 47 50 51 50 51 56 60 67 76
29 28 28 28 29 29 30 30 29 29 29 30 31 32 34 35 37 38 38 40 42 43 44 46 48 50 50 51 52 54 53 57 58 57 59 59 58 60
37 36 36 36 35 35 35 34 34 35 36 37 38 39 41 42 44 46 48 51 52 53 54 56 57 58 60 63 63 63 64 65 65 66 66 65 66 66
41 43 42 43 42 40 38 38 38 39 40 42 43 45 47 48 49 51 53 54 56 58 60 62 63 65 68 69 70 72 73 73 74 73 71 71 72 73
47 49 48 47 45 43 42 42 41 42 42 44 46 47 49 51 53 54 56 58 59 60 62 64 65 66 68 71 74 73 74 75 76 78 80 80 79 81
49 48 46 44 41 40 40 41 43 44 46 47 49 50 52 54 56 58 60 63 64 66 67 68 69 71 72 75 79 84 83 84 85 85 87 87 86 83
45 44 42 41 39 39 40 42 44 46 48 50 51 53 55 57 60 62 64 65 67 70 72 75 77 79 81 82 82 84 87 85 85 85 85 86 86 86
43 42 40 39 40 41 43 45 48 50 51 52 54 56 59 62 64 67 69 71 73 76 78 79 81 82 82 81 81 80 82 83 83 80 80 81 80 78
43 42 41 41 43 44 46 49 51 52 54 56 58 61 64 66 68 71 74 76 77 78 78 78 77 78 77 78 78 79 79 82 84 85 85 84 83 82
42 42 42 43 45 48 49 51 53 55 57 59 62 65 68 72 74 75 75 74 73 73 74 74 75 77 78 78 79 79 80 81 81 80 83 86 85 85

GFSNE_500_spd_153.txt.gz
Wind_Speed
18 19 18 19 24 28 27 32 38 43 50 55 57 58 61 61 62 62 60 59 59 59 59 56 55 50 49 54 50 55 47 50 51 56 51 49 49 50
19 20 19 18 20 21 26 25 30 37 43 49 52 54 59 59 60 61 64 64 63 63 62 61 62 60 59 54 55 54 50 53 49 54 55 53 53 53
20 17 15 13 10 12 18 22 23 29 36 41 47 51 54 54 57 60 62 63 62 64 68 68 67 65 65 61 58 59 55 52 56 55 53 56 56 56
20 20 16 11 6 4 8 18 19 21 29 35 38 43 48 49 52 54 58 61 62 63 66 69 69 69 67 66 65 62 60 61 61 60 59 61 59 62
18 16 17 15 8 4 1 10 20 18 19 26 34 36 39 43 45 48 55 58 62 65 66 66 67 69 69 68 67 66 65 66 60 60 66 69 68 66
12 16 16 17 15 10 4 7 15 18 18 19 21 24 29 35 41 44 47 50 54 58 64 68 72 71 66 68 69 66 70 75 76 53 57 63 60 63
22 17 12 12 13 15 14 11 5 10 18 20 22 26 27 29 36 42 45 45 48 50 52 54 57 64 71 74 72 73 73 77 78 75 57 61 55 56
18 19 17 13 11 11 11 11 8 7 5 7 11 18 25 30 33 37 43 48 49 51 54 56 53 50 51 56 75 79 79 77 70 68 69 74 69 69
15 15 16 16 16 16 14 11 9 7 6 6 5 7 9 13 20 26 33 39 42 43 46 52 54 56 56 56 57 63 71 76 79 72 69 70 70 71
15 14 12 10 9 10 10 10 11 11 10 10 8 6 3 6 9 11 15 19 24 30 36 42 47 51 54 56 58 58 58 62 68 72 70 68 71 78
14 14 13 12 11 10 8 6 4 4 3 2 2 1 1 0 1 2 4 9 16 22 26 29 33 35 37 42 46 50 54 58 66 77 80 79 67 62
17 18 17 16 15 13 11 11 11 10 9 9 8 8 8 9 10 11 12 13 15 16 16 17 19 23 26 29 31 33 34 35 38 44 56 63 64 70
21 20 20 20 20 20 20 20 19 18 18 18 18 18 18 18 19 20 20 21 23 24 26 27 28 30 31 32 33 35 36 37 38 38 40 42 47 55
27 27 27 27 26 25 26 27 27 27 27 26 25 25 25 26 26 27 29 30 31 33 34 36 37 38 40 41 42 44 46 46 47 47 47 50 50 50
32 33 34 33 33 33 33 33 32 33 34 34 34 35 35 35 36 36 37 38 40 41 43 45 47 48 50 51 52 52 53 56 57 57 58 59 58 59
40 38 38 39 40 39 39 40 39 38 36 36 37 39 40 41 43 45 47 48 50 51 53 55 57 59 61 63 63 64 65 64 65 66 66 68 70 70
47 46 45 45 46 47 46 43 41 41 40 39 39 39 39 40 42 45 48 50 52 54 56 58 61 63 65 66 68 69 70 73 75 76 77 76 76 79
46 45 46 47 47 46 45 44 41 39 39 39 41 42 44 45 47 49 50 51 53 54 55 57 59 62 65 68 71 71 73 75 76 78 80 81 81 82
43 43 46 48 47 47 47 44 40 38 37 38 39 42 45 47 49 51 53 55 57 59 60 63 65 67 68 70 75 78 78 80 81 82 84 86 88 89
42 46 48 48 49 49 47 43 41 39 40 41 43 45 46 49 52 54 55 58 60 63 65 68 71 74 76 78 79 85 88 89 90 91 92 94 96 98
45 46 47 48 48 48 46 44 43 42 43 44 46 49 51 53 55 58 61 63 66 69 72 75 77 80 83 85 85 85 87 89 90 91 91 91 92 91
46 47 48 48 47 46 44 43 43 44 45 47 49 52 54 57 60 62 65 68 71 74 77 81 82 83 81 80 78 77 78 80 83 85 87 87 87 87
47 48 48 47 47 45 44 44 44 46 48 50 52 55 58 60 63 67 70 73 77 79 79 77 75 75 76 77 77 76 76 77 77 75 77 80 81 83

GFSNE_500_spd_156.txt.gz
Wind_Speed
24 24 22 22 23 24 23 22 30 32 37 44 43 48 55 55 60 60 61 62 64 65 64 63 64 61 56 55 55 46 39 43 52 53 54 51 47 50
24 25 22 20 19 18 18 17 22 26 32 39 39 46 51 52 53 55 57 58 62 64 65 64 64 63 60 59 61 58 37 50 49 46 55 47 45 49
23 24 23 18 16 13 8 11 16 20 28 33 37 41 47 50 51 48 50 53 55 59 62 63 64 64 62 60 62 62 57 53 50 49 45 50 47 50
20 20 22 18 14 13 10 7 13 16 21 28 34 38 45 41 50 54 50 52 51 54 57 58 61 63 64 64 63 63 65 62 62 62 53 58 51 54
20 18 19 20 18 13 12 5 13 12 15 21 26 31 36 45 48 52 53 53 54 56 55 57 58 61 64 65 65 65 67 68 66 65 63 63 60 59
26 16 14 16 19 20 12 8 8 7 6 11 20 25 29 33 38 44 49 52 54 57 58 58 59 60 62 65 67 66 68 68 70 72 71 67 68 68
21 25 16 11 13 15 17 13 10 11 12 9 9 15 21 26 33 37 40 42 47 52 56 58 59 61 63 63 66 69 70 67 70 72 74 73 73 73
17 17 18 22 19 12 14 14 12 10 6 10 13 14 19 22 24 28 33 39 44 47 48 49 51 53 57 63 68 69 71 73 72 71 73 74 73 76
15 15 15 14 14 16 17 14 9 8 8 8 6 8 13 19 24 28 29 31 35 38 44 46 48 51 53 53 54 54 56 57 59 61 72 78 79 74
17 15 14 13 11 10 9 8 9 9 9 7 5 7 8 9 12 16 21 26 30 34 37 40 42 44 46 48 50 52 55 56 57 58 58 56 67 80
20 20 18 16 15 13 11 8 6 5 4 3 1 1 1 2 4 10 14 16 18 20 23 28 32 37 41 43 45 47 49 52 55 58 60 62 63 62
24 22 21 20 18 17 16 16 14 13 12 10 10 9 10 10 10 11 11 12 12 15 18 23 27 30 33 36 39 39 41 43 46 49 53 53 55 56
29 27 25 24 23 23 22 22 21 20 19 20 20 20 20 20 19 19 20 19 20 21 22 24 25 26 27 28 32 35 36 39 40 42 43 45 45 47
36 34 33 32 30 30 29 29 29 29 28 27 27 28 28 28 28 28 28 28 29 29 30 32 33 35 36 38 40 42 43 44 46 48 49 51 51 52
40 38 38 38 38 37 37 37 37 37 37 36 34 33 33 34 35 36 37 37 38 38 39 40 42 43 44 46 47 48 51 53 54 56 58 60 61 61
41 42 43 44 45 44 45 45 45 44 42 41 41 40 39 39 40 41 43 44 44 45 46 48 50 52 53 55 57 59 61 62 64 66 67 69 71 72
43 44 44 43 42 43 44 46 46 46 45 43 43 43 43 43 44 45 46 46 46 47 48 50 53 55 58 60 63 65 67 69 72 72 73 73 74 75
41 41 41 41 42 44 47 48 47 46 45 45 44 41 41 43 44 46 47 47 48 49 50 53 54 56 58 61 64 65 67 68 70 73 76 77 78 80
40 40 42 42 45 48 49 49 48 48 47 46 44 43 43 43 43 44 45 48 50 51 52 54 55 57 59 63 67 69 70 73 76 79 81 84 85 88
39 41 43 46 48 48 48 48 48 48 47 47 46 46 45 45 46 47 49 51 52 54 56 58 60 62 64 67 70 75 77 80 83 85 87 91 94 97
43 42 44 45 45 46 47 47 47 48 48 46 45 45 45 47 48 49 51 53 54 57 59 62 65 68 71 75 78 82 86 89 92 93 93 93 92 91
44 43 42 42 45 47 48 48 47 46 45 44 45 46 47 49 50 52 53 56 58 61 63 67 70 73 76 79 83 85 84 83 84 86 87 87 87 88
45 45 47 48 46 45 44 44 45 45 45 45 45 47 48 50 52 54 56 58 61 64 68 71 75 78 80 78 77 77 78 79 79 78 82 85 87 89